GEFSNGP_prec_meanprecacc_108.txt.gz
Total_Precipitation_Accumulation
0.00 0.00 0.00 0.00 0.00 0.00 0.00 0.00 0.01 0.01 0.01 0.02 0.01 0.00 0.00 0.00 0.00 0.00 0.00 0.00 0.01 0.01 0.01 0.02 0.02 0.03 0.06 0.09 0.12 0.16 0.20 0.23 0.23 0.22 0.22 0.22 0.22 0.22 0.23 0.25 0.27 0.26 0.25 0.26
0.00 0.00 0.00 0.00 0.00 0.00 0.00 0.00 0.00 0.01 0.01 0.01 0.00 0.00 0.00 0.00 0.00 0.01 0.01 0.01 0.01 0.02 0.03 0.04 0.06 0.09 0.14 0.20 0.23 0.25 0.27 0.27 0.25 0.22 0.21 0.21 0.22 0.22 0.23 0.23 0.21 0.18 0.17 0.22
0.00 0.00 0.00 0.00 0.00 0.00 0.00 0.00 0.00 0.00 0.00 0.00 0.00 0.00 0.00 0.00 0.01 0.02 0.02 0.03 0.04 0.05 0.07 0.09 0.13 0.18 0.22 0.24 0.24 0.26 0.28 0.28 0.26 0.24 0.23 0.21 0.20 0.18 0.18 0.16 0.13 0.11 0.09 0.12
0.00 0.00 0.00 0.00 0.00 0.00 0.00 0.00 0.00 0.00 0.00 0.00 0.00 0.00 0.00 0.01 0.02 0.04 0.05 0.07 0.09 0.11 0.12 0.15 0.20 0.24 0.27 0.26 0.26 0.26 0.25 0.23 0.19 0.16 0.15 0.14 0.14 0.13 0.11 0.10 0.08 0.07 0.05 0.06
0.00 0.00 0.00 0.00 0.00 0.00 0.00 0.00 0.00 0.00 0.00 0.00 0.00 0.00 0.01 0.04 0.04 0.05 0.07 0.07 0.08 0.08 0.09 0.13 0.19 0.22 0.23 0.21 0.20 0.17 0.15 0.12 0.09 0.07 0.07 0.08 0.08 0.07 0.05 0.05 0.04 0.03 0.03 0.03
0.00 0.00 0.00 0.00 0.00 0.00 0.00 0.00 0.00 0.00 0.00 0.01 0.05 0.17 0.08 0.09 0.06 0.05 0.04 0.04 0.04 0.04 0.04 0.07 0.10 0.12 0.12 0.12 0.10 0.09 0.07 0.05 0.03 0.02 0.03 0.04 0.04 0.03 0.02 0.02 0.03 0.03 0.02 0.03
0.00 0.00 0.00 0.00 0.00 0.00 0.00 0.00 0.00 0.00 0.01 0.06 0.14 0.20 0.12 0.08 0.06 0.04 0.03 0.03 0.02 0.02 0.04 0.07 0.10 0.11 0.10 0.08 0.05 0.03 0.02 0.01 0.01 0.00 0.01 0.01 0.02 0.02 0.02 0.03 0.03 0.03 0.03 0.03
0.00 0.00 0.00 0.00 0.00 0.00 0.00 0.00 0.00 0.03 0.06 0.11 0.09 0.04 0.03 0.04 0.05 0.03 0.02 0.02 0.02 0.03 0.05 0.10 0.12 0.10 0.06 0.04 0.01 0.00 0.00 0.00 0.00 0.00 0.01 0.01 0.02 0.02 0.03 0.03 0.04 0.04 0.04 0.04
0.00 0.00 0.00 0.00 0.00 0.00 0.00 0.02 0.06 0.14 0.15 0.14 0.12 0.08 0.06 0.05 0.04 0.02 0.02 0.02 0.04 0.05 0.08 0.11 0.09 0.05 0.02 0.01 0.00 0.00 0.00 0.00 0.01 0.01 0.01 0.01 0.02 0.03 0.04 0.04 0.06 0.09 0.08 0.07
0.00 0.00 0.00 0.00 0.00 0.00 0.01 0.05 0.09 0.12 0.13 0.14 0.16 0.12 0.08 0.05 0.03 0.03 0.04 0.05 0.06 0.07 0.09 0.10 0.06 0.02 0.00 0.00 0.00 0.00 0.01 0.01 0.01 0.01 0.02 0.02 0.03 0.04 0.05 0.07 0.17 0.25 0.20 0.16
0.00 0.00 0.00 0.00 0.00 0.01 0.03 0.04 0.03 0.02 0.05 0.11 0.16 0.12 0.07 0.05 0.05 0.06 0.07 0.07 0.08 0.09 0.09 0.07 0.03 0.01 0.00 0.00 0.00 0.01 0.01 0.02 0.02 0.02 0.03 0.03 0.03 0.03 0.06 0.09 0.24 0.41 0.36 0.33
0.00 0.00 0.00 0.00 0.00 0.02 0.05 0.04 0.05 0.07 0.07 0.07 0.09 0.08 0.06 0.08 0.09 0.09 0.10 0.11 0.11 0.09 0.05 0.02 0.01 0.00 0.00 0.00 0.01 0.02 0.03 0.03 0.04 0.04 0.04 0.04 0.05 0.05 0.05 0.07 0.13 0.16 0.20 0.29
0.00 0.00 0.00 0.00 0.00 0.00 0.02 0.04 0.07 0.10 0.10 0.07 0.04 0.05 0.09 0.14 0.14 0.13 0.13 0.10 0.06 0.03 0.01 0.01 0.00 0.00 0.00 0.00 0.01 0.02 0.04 0.05 0.06 0.06 0.06 0.07 0.08 0.10 0.09 0.06 0.05 0.06 0.08 0.15
0.00 0.00 0.01 0.01 0.00 0.01 0.03 0.06 0.08 0.11 0.09 0.06 0.04 0.05 0.07 0.09 0.09 0.08 0.07 0.05 0.02 0.01 0.01 0.01 0.00 0.00 0.00 0.01 0.01 0.02 0.04 0.06 0.08 0.08 0.09 0.10 0.11 0.12 0.13 0.13 0.09 0.05 0.04 0.07
0.00 0.00 0.02 0.01 0.01 0.02 0.04 0.05 0.06 0.07 0.06 0.05 0.04 0.05 0.06 0.07 0.08 0.07 0.05 0.02 0.01 0.01 0.01 0.01 0.00 0.01 0.00 0.01 0.02 0.03 0.04 0.06 0.09 0.10 0.10 0.11 0.11 0.12 0.11 0.11 0.11 0.08 0.06 0.07
0.00 0.00 0.00 0.00 0.01 0.03 0.04 0.04 0.06 0.06 0.06 0.05 0.05 0.05 0.05 0.04 0.04 0.03 0.01 0.01 0.01 0.01 0.01 0.01 0.01 0.01 0.01 0.02 0.03 0.04 0.05 0.08 0.11 0.11 0.11 0.11 0.11 0.13 0.14 0.14 0.13 0.12 0.11 0.11
0.00 0.01 0.01 0.01 0.02 0.03 0.05 0.06 0.07 0.07 0.05 0.03 0.03 0.03 0.02 0.01 0.01 0.01 0.00 0.00 0.00 0.00 0.00 0.00 0.02 0.02 0.01 0.02 0.05 0.06 0.06 0.07 0.10 0.11 0.11 0.11 0.14 0.16 0.17 0.18 0.18 0.15 0.12 0.12
0.01 0.03 0.04 0.05 0.06 0.06 0.06 0.05 0.04 0.03 0.02 0.02 0.01 0.01 0.01 0.01 0.01 0.01 0.00 0.00 0.00 0.00 0.00 0.00 0.03 0.03 0.02 0.03 0.07 0.08 0.09 0.11 0.12 0.13 0.13 0.13 0.16 0.17 0.17 0.19 0.19 0.17 0.13 0.10
0.01 0.02 0.04 0.05 0.06 0.06 0.05 0.04 0.02 0.01 0.01 0.01 0.01 0.01 0.01 0.01 0.00 0.00 0.00 0.00 0.00 0.01 0.00 0.01 0.03 0.02 0.02 0.04 0.10 0.11 0.14 0.15 0.14 0.12 0.11 0.13 0.15 0.14 0.17 0.19 0.19 0.17 0.16 0.15
0.01 0.02 0.04 0.04 0.05 0.04 0.03 0.02 0.01 0.00 0.00 0.01 0.01 0.01 0.00 0.00 0.00 0.00 0.00 0.00 0.01 0.02 0.01 0.03 0.03 0.04 0.06 0.09 0.16 0.17 0.16 0.15 0.14 0.13 0.13 0.14 0.16 0.17 0.18 0.18 0.19 0.20 0.18 0.16
0.02 0.03 0.04 0.05 0.04 0.02 0.01 0.00 0.00 0.00 0.01 0.00 0.00 0.00 0.00 0.00 0.00 0.00 0.01 0.01 0.01 0.02 0.02 0.03 0.05 0.12 0.16 0.18 0.17 0.13 0.13 0.14 0.15 0.16 0.18 0.20 0.21 0.20 0.19 0.20 0.21 0.21 0.20 0.18
0.02 0.04 0.05 0.05 0.03 0.01 0.00 0.00 0.00 0.00 0.00 0.00 0.00 0.00 0.00 0.00 0.00 0.01 0.01 0.01 0.02 0.05 0.04 0.03 0.09 0.22 0.20 0.16 0.12 0.11 0.12 0.13 0.16 0.18 0.21 0.24 0.27 0.27 0.24 0.24 0.26 0.24 0.22 0.21
0.03 0.04 0.05 0.05 0.02 0.01 0.00 0.00 0.00 0.00 0.00 0.00 0.00 0.01 0.01 0.01 0.01 0.02 0.03 0.02 0.02 0.05 0.04 0.04 0.13 0.18 0.16 0.11 0.10 0.10 0.12 0.15 0.19 0.22 0.25 0.27 0.29 0.31 0.31 0.30 0.29 0.28 0.27 0.25
0.05 0.06 0.06 0.04 0.01 0.00 0.00 0.00 0.00 0.00 0.00 0.00 0.00 0.01 0.01 0.02 0.02 0.02 0.03 0.03 0.05 0.06 0.04 0.06 0.12 0.13 0.12 0.10 0.10 0.12 0.15 0.20 0.26 0.28 0.27 0.28 0.28 0.30 0.33 0.35 0.34 0.31 0.29 0.28
0.07 0.07 0.05 0.03 0.01 0.00 0.00 0.00 0.00 0.00 0.00 0.00 0.00 0.01 0.01 0.03 0.04 0.04 0.03 0.03 0.05 0.07 0.06 0.06 0.09 0.11 0.10 0.11 0.14 0.17 0.20 0.25 0.33 0.36 0.33 0.32 0.30 0.32 0.33 0.35 0.37 0.35 0.33 0.31
0.08 0.07 0.04 0.02 0.01 0.01 0.01 0.02 0.02 0.01 0.01 0.01 0.01 0.01 0.01 0.02 0.03 0.03 0.04 0.04 0.05 0.07 0.07 0.07 0.09 0.11 0.13 0.14 0.17 0.21 0.25 0.28 0.30 0.31 0.31 0.31 0.31 0.32 0.34 0.36 0.38 0.37 0.36 0.33
0.08 0.05 0.03 0.01 0.01 0.01 0.02 0.02 0.03 0.03 0.03 0.03 0.03 0.02 0.02 0.02 0.03 0.04 0.05 0.05 0.06 0.06 0.07 0.09 0.11 0.13 0.15 0.17 0.20 0.23 0.26 0.29 0.32 0.35 0.35 0.34 0.34 0.35 0.36 0.39 0.40 0.39 0.38 0.35

GEFSNGP_prec_meanprecacc_114.txt.gz
Total_Precipitation_Accumulation
0.00 0.00 0.00 0.00 0.00 0.00 0.00 0.00 0.01 0.01 0.01 0.02 0.01 0.00 0.00 0.00 0.00 0.00 0.00 0.00 0.01 0.01 0.01 0.02 0.02 0.03 0.06 0.09 0.12 0.16 0.20 0.23 0.23 0.22 0.22 0.22 0.22 0.22 0.23 0.25 0.27 0.26 0.25 0.26
0.00 0.00 0.00 0.00 0.00 0.00 0.00 0.00 0.00 0.01 0.01 0.01 0.00 0.00 0.00 0.00 0.00 0.01 0.01 0.01 0.01 0.02 0.03 0.04 0.06 0.09 0.14 0.20 0.23 0.25 0.27 0.27 0.25 0.22 0.21 0.21 0.22 0.22 0.23 0.23 0.21 0.18 0.17 0.22
0.00 0.00 0.00 0.00 0.00 0.00 0.00 0.00 0.00 0.00 0.00 0.00 0.00 0.00 0.00 0.00 0.01 0.02 0.02 0.03 0.04 0.05 0.07 0.09 0.13 0.18 0.22 0.24 0.24 0.26 0.28 0.28 0.26 0.24 0.23 0.21 0.20 0.18 0.18 0.16 0.13 0.11 0.09 0.12
0.00 0.00 0.00 0.00 0.00 0.00 0.00 0.00 0.00 0.00 0.00 0.00 0.00 0.00 0.00 0.01 0.02 0.04 0.05 0.07 0.09 0.11 0.12 0.15 0.20 0.24 0.27 0.26 0.26 0.26 0.25 0.23 0.19 0.16 0.15 0.14 0.14 0.13 0.11 0.10 0.08 0.07 0.05 0.06
0.00 0.00 0.00 0.00 0.00 0.00 0.00 0.00 0.00 0.00 0.00 0.00 0.00 0.00 0.01 0.04 0.04 0.05 0.07 0.07 0.08 0.08 0.09 0.13 0.19 0.22 0.23 0.21 0.20 0.17 0.15 0.12 0.09 0.07 0.07 0.08 0.08 0.07 0.06 0.05 0.04 0.03 0.03 0.04
0.00 0.00 0.00 0.00 0.00 0.00 0.00 0.00 0.00 0.00 0.00 0.01 0.05 0.17 0.08 0.09 0.06 0.05 0.04 0.04 0.04 0.04 0.04 0.07 0.10 0.12 0.12 0.12 0.10 0.09 0.07 0.05 0.03 0.02 0.03 0.04 0.04 0.03 0.03 0.02 0.03 0.03 0.03 0.03
0.00 0.00 0.00 0.00 0.00 0.00 0.00 0.00 0.00 0.00 0.01 0.06 0.14 0.20 0.12 0.08 0.06 0.04 0.03 0.03 0.02 0.02 0.04 0.07 0.10 0.11 0.10 0.08 0.05 0.03 0.02 0.01 0.01 0.00 0.01 0.01 0.02 0.02 0.02 0.03 0.03 0.03 0.03 0.03
0.00 0.00 0.00 0.00 0.00 0.00 0.00 0.00 0.00 0.03 0.06 0.11 0.09 0.04 0.03 0.04 0.05 0.03 0.02 0.02 0.02 0.03 0.05 0.10 0.12 0.10 0.06 0.04 0.01 0.00 0.00 0.00 0.00 0.00 0.01 0.01 0.02 0.02 0.03 0.03 0.04 0.04 0.05 0.04
0.00 0.00 0.00 0.00 0.00 0.00 0.00 0.02 0.06 0.14 0.15 0.14 0.12 0.08 0.06 0.05 0.04 0.02 0.02 0.02 0.04 0.05 0.08 0.11 0.09 0.05 0.02 0.01 0.00 0.00 0.00 0.00 0.01 0.01 0.01 0.02 0.02 0.03 0.04 0.04 0.07 0.09 0.09 0.08
0.00 0.00 0.00 0.00 0.00 0.00 0.01 0.05 0.09 0.12 0.13 0.14 0.16 0.12 0.08 0.05 0.03 0.03 0.04 0.05 0.06 0.07 0.09 0.10 0.06 0.02 0.00 0.00 0.00 0.00 0.01 0.01 0.01 0.01 0.02 0.02 0.03 0.04 0.05 0.08 0.18 0.26 0.21 0.17
0.00 0.00 0.00 0.00 0.00 0.01 0.03 0.04 0.03 0.02 0.05 0.11 0.16 0.12 0.07 0.05 0.05 0.06 0.07 0.07 0.08 0.09 0.09 0.07 0.03 0.01 0.00 0.00 0.00 0.01 0.01 0.02 0.02 0.02 0.03 0.03 0.03 0.04 0.07 0.09 0.25 0.43 0.38 0.36
0.00 0.00 0.00 0.00 0.00 0.02 0.05 0.04 0.05 0.07 0.07 0.07 0.09 0.08 0.06 0.08 0.09 0.09 0.10 0.11 0.11 0.09 0.05 0.02 0.01 0.00 0.00 0.00 0.01 0.02 0.03 0.03 0.04 0.04 0.04 0.04 0.05 0.05 0.05 0.07 0.14 0.17 0.22 0.31
0.00 0.00 0.00 0.00 0.00 0.00 0.02 0.04 0.07 0.10 0.10 0.07 0.04 0.05 0.09 0.14 0.14 0.13 0.13 0.10 0.06 0.03 0.01 0.01 0.00 0.00 0.00 0.00 0.01 0.02 0.04 0.05 0.06 0.06 0.06 0.07 0.08 0.10 0.10 0.06 0.06 0.06 0.09 0.16
0.00 0.00 0.01 0.01 0.00 0.01 0.03 0.06 0.08 0.11 0.09 0.06 0.04 0.05 0.07 0.09 0.09 0.08 0.07 0.05 0.02 0.01 0.01 0.01 0.00 0.00 0.00 0.01 0.01 0.02 0.04 0.06 0.08 0.08 0.09 0.11 0.12 0.13 0.14 0.14 0.10 0.05 0.04 0.08
0.00 0.00 0.02 0.01 0.01 0.02 0.04 0.05 0.06 0.07 0.06 0.05 0.04 0.05 0.06 0.07 0.08 0.07 0.05 0.02 0.01 0.01 0.01 0.01 0.00 0.01 0.00 0.01 0.02 0.03 0.04 0.06 0.09 0.10 0.10 0.11 0.12 0.13 0.12 0.12 0.12 0.09 0.06 0.07
0.00 0.00 0.00 0.00 0.01 0.03 0.04 0.04 0.06 0.06 0.06 0.05 0.05 0.05 0.05 0.04 0.04 0.03 0.01 0.01 0.01 0.01 0.01 0.01 0.01 0.01 0.01 0.02 0.03 0.04 0.05 0.08 0.11 0.12 0.12 0.12 0.12 0.14 0.15 0.15 0.15 0.13 0.12 0.12
0.00 0.01 0.01 0.01 0.02 0.03 0.05 0.06 0.07 0.07 0.05 0.03 0.03 0.03 0.02 0.01 0.01 0.01 0.00 0.00 0.00 0.00 0.00 0.00 0.02 0.02 0.01 0.02 0.05 0.06 0.07 0.08 0.11 0.11 0.12 0.12 0.15 0.18 0.19 0.20 0.19 0.16 0.12 0.13
0.01 0.03 0.04 0.05 0.06 0.06 0.06 0.05 0.04 0.03 0.02 0.02 0.01 0.01 0.01 0.01 0.01 0.01 0.00 0.00 0.00 0.00 0.00 0.00 0.03 0.03 0.02 0.03 0.07 0.08 0.10 0.12 0.13 0.14 0.14 0.14 0.18 0.19 0.19 0.21 0.20 0.18 0.13 0.11
0.01 0.02 0.04 0.05 0.06 0.06 0.05 0.04 0.02 0.01 0.01 0.01 0.01 0.01 0.01 0.01 0.00 0.00 0.00 0.00 0.00 0.01 0.00 0.01 0.04 0.03 0.02 0.04 0.11 0.12 0.15 0.16 0.15 0.13 0.13 0.15 0.16 0.15 0.18 0.20 0.20 0.18 0.17 0.15
0.01 0.02 0.04 0.04 0.05 0.04 0.03 0.02 0.01 0.00 0.00 0.01 0.01 0.01 0.00 0.00 0.00 0.00 0.00 0.00 0.01 0.02 0.02 0.03 0.03 0.04 0.06 0.09 0.16 0.17 0.17 0.17 0.16 0.15 0.14 0.15 0.17 0.18 0.18 0.19 0.20 0.20 0.19 0.17
0.02 0.03 0.04 0.05 0.04 0.02 0.01 0.00 0.00 0.00 0.01 0.00 0.00 0.00 0.00 0.00 0.00 0.00 0.01 0.01 0.01 0.02 0.02 0.03 0.05 0.12 0.16 0.18 0.18 0.15 0.14 0.16 0.17 0.18 0.19 0.21 0.22 0.21 0.19 0.21 0.22 0.22 0.21 0.19
0.02 0.04 0.05 0.05 0.03 0.01 0.00 0.00 0.00 0.00 0.00 0.00 0.00 0.00 0.00 0.00 0.00 0.01 0.01 0.01 0.02 0.05 0.04 0.03 0.10 0.23 0.21 0.18 0.13 0.13 0.13 0.15 0.17 0.19 0.22 0.25 0.28 0.28 0.25 0.25 0.27 0.25 0.23 0.22
0.03 0.04 0.05 0.05 0.02 0.01 0.00 0.00 0.00 0.00 0.00 0.00 0.00 0.01 0.01 0.01 0.01 0.02 0.03 0.02 0.03 0.06 0.05 0.05 0.13 0.19 0.17 0.13 0.11 0.12 0.13 0.16 0.20 0.23 0.26 0.28 0.30 0.32 0.33 0.31 0.30 0.29 0.29 0.27
0.05 0.06 0.06 0.04 0.01 0.00 0.00 0.00 0.00 0.00 0.00 0.00 0.00 0.01 0.01 0.02 0.02 0.02 0.03 0.03 0.05 0.07 0.04 0.06 0.12 0.14 0.13 0.11 0.11 0.13 0.16 0.21 0.26 0.29 0.28 0.29 0.29 0.32 0.35 0.36 0.35 0.32 0.30 0.30
0.07 0.07 0.05 0.03 0.01 0.00 0.00 0.00 0.00 0.00 0.00 0.00 0.00 0.01 0.01 0.03 0.04 0.04 0.03 0.04 0.05 0.07 0.06 0.06 0.10 0.12 0.11 0.11 0.14 0.17 0.21 0.26 0.34 0.37 0.35 0.33 0.31 0.33 0.34 0.36 0.38 0.37 0.34 0.32
0.08 0.07 0.04 0.02 0.01 0.01 0.01 0.02 0.02 0.01 0.01 0.01 0.01 0.01 0.01 0.02 0.03 0.03 0.04 0.05 0.05 0.07 0.07 0.07 0.09 0.11 0.13 0.15 0.18 0.21 0.25 0.28 0.31 0.32 0.31 0.32 0.32 0.33 0.35 0.38 0.39 0.39 0.37 0.35
0.08 0.05 0.03 0.01 0.01 0.01 0.02 0.02 0.03 0.03 0.03 0.03 0.03 0.02 0.02 0.02 0.03 0.04 0.05 0.06 0.06 0.07 0.07 0.09 0.11 0.13 0.15 0.17 0.20 0.24 0.27 0.29 0.33 0.36 0.35 0.35 0.35 0.36 0.37 0.40 0.41 0.41 0.39 0.37

GEFSNGP_prec_meanprecacc_120.txt.gz
Total_Precipitation_Accumulation
0.00 0.00 0.00 0.00 0.00 0.00 0.00 0.00 0.01 0.01 0.01 0.02 0.01 0.00 0.00 0.00 0.00 0.00 0.00 0.00 0.01 0.01 0.01 0.02 0.02 0.03 0.06 0.09 0.12 0.16 0.20 0.23 0.23 0.22 0.22 0.22 0.22 0.22 0.23 0.25 0.27 0.26 0.25 0.26
0.00 0.00 0.00 0.00 0.00 0.00 0.00 0.00 0.00 0.01 0.01 0.01 0.00 0.00 0.00 0.00 0.00 0.01 0.01 0.01 0.01 0.02 0.03 0.04 0.06 0.09 0.14 0.20 0.23 0.25 0.27 0.27 0.25 0.22 0.21 0.21 0.22 0.22 0.23 0.23 0.21 0.18 0.17 0.22
0.00 0.00 0.00 0.00 0.00 0.00 0.00 0.00 0.00 0.00 0.00 0.00 0.00 0.00 0.00 0.00 0.01 0.02 0.02 0.03 0.04 0.05 0.07 0.09 0.13 0.18 0.22 0.24 0.24 0.26 0.28 0.28 0.26 0.24 0.23 0.21 0.20 0.18 0.18 0.16 0.13 0.11 0.09 0.12
0.00 0.00 0.00 0.00 0.00 0.00 0.00 0.00 0.00 0.00 0.00 0.00 0.00 0.00 0.00 0.01 0.02 0.04 0.05 0.07 0.09 0.11 0.12 0.15 0.20 0.24 0.27 0.26 0.26 0.26 0.25 0.23 0.19 0.16 0.15 0.14 0.14 0.13 0.11 0.10 0.08 0.07 0.05 0.06
0.00 0.00 0.00 0.00 0.00 0.00 0.00 0.00 0.00 0.00 0.00 0.00 0.00 0.00 0.01 0.04 0.04 0.05 0.07 0.07 0.08 0.08 0.09 0.13 0.19 0.22 0.23 0.21 0.20 0.17 0.15 0.12 0.09 0.07 0.07 0.08 0.08 0.07 0.06 0.05 0.04 0.03 0.03 0.04
0.00 0.00 0.00 0.00 0.00 0.00 0.00 0.00 0.00 0.00 0.00 0.01 0.05 0.17 0.08 0.09 0.06 0.05 0.04 0.04 0.04 0.04 0.04 0.07 0.10 0.12 0.12 0.12 0.10 0.09 0.07 0.05 0.03 0.02 0.03 0.04 0.04 0.03 0.03 0.02 0.03 0.03 0.03 0.03
0.00 0.00 0.00 0.00 0.00 0.00 0.00 0.00 0.00 0.00 0.01 0.06 0.14 0.20 0.12 0.08 0.06 0.04 0.03 0.03 0.02 0.02 0.04 0.07 0.10 0.11 0.10 0.08 0.05 0.03 0.02 0.01 0.01 0.00 0.01 0.01 0.02 0.02 0.02 0.03 0.03 0.03 0.03 0.03
0.00 0.00 0.00 0.00 0.00 0.00 0.00 0.00 0.00 0.03 0.06 0.11 0.09 0.04 0.03 0.04 0.05 0.03 0.02 0.02 0.02 0.03 0.05 0.10 0.12 0.10 0.06 0.04 0.01 0.00 0.00 0.00 0.00 0.00 0.01 0.01 0.02 0.02 0.03 0.03 0.04 0.04 0.05 0.04
0.00 0.00 0.00 0.00 0.00 0.00 0.00 0.02 0.06 0.14 0.15 0.14 0.12 0.08 0.06 0.05 0.04 0.02 0.02 0.02 0.04 0.05 0.08 0.11 0.09 0.05 0.02 0.01 0.00 0.00 0.00 0.00 0.01 0.01 0.01 0.02 0.02 0.03 0.04 0.04 0.07 0.09 0.09 0.08
0.00 0.00 0.00 0.00 0.00 0.00 0.01 0.05 0.09 0.12 0.13 0.14 0.16 0.12 0.08 0.05 0.03 0.03 0.04 0.05 0.06 0.07 0.09 0.10 0.06 0.02 0.00 0.00 0.00 0.00 0.01 0.01 0.01 0.01 0.02 0.02 0.03 0.04 0.05 0.08 0.18 0.26 0.22 0.18
0.00 0.00 0.00 0.00 0.00 0.01 0.03 0.04 0.03 0.02 0.05 0.11 0.16 0.12 0.07 0.05 0.05 0.06 0.07 0.07 0.08 0.09 0.09 0.07 0.03 0.01 0.00 0.00 0.00 0.01 0.01 0.02 0.02 0.02 0.03 0.03 0.03 0.04 0.07 0.09 0.25 0.44 0.40 0.37
0.00 0.00 0.00 0.00 0.00 0.02 0.05 0.04 0.05 0.07 0.07 0.07 0.09 0.08 0.06 0.08 0.09 0.09 0.10 0.11 0.11 0.09 0.05 0.02 0.01 0.00 0.00 0.00 0.01 0.02 0.03 0.03 0.04 0.04 0.04 0.04 0.05 0.05 0.05 0.07 0.14 0.18 0.22 0.32
0.00 0.00 0.00 0.00 0.00 0.00 0.02 0.04 0.07 0.10 0.10 0.07 0.04 0.05 0.09 0.14 0.14 0.13 0.13 0.10 0.06 0.03 0.01 0.01 0.00 0.00 0.00 0.00 0.01 0.02 0.04 0.05 0.06 0.06 0.06 0.07 0.09 0.11 0.10 0.06 0.06 0.06 0.09 0.17
0.00 0.00 0.01 0.01 0.00 0.01 0.03 0.06 0.08 0.11 0.09 0.06 0.04 0.05 0.07 0.09 0.09 0.08 0.07 0.05 0.02 0.01 0.01 0.01 0.00 0.00 0.00 0.01 0.01 0.02 0.04 0.06 0.08 0.08 0.09 0.11 0.13 0.14 0.15 0.15 0.11 0.06 0.04 0.08
0.00 0.00 0.02 0.01 0.01 0.02 0.04 0.05 0.06 0.07 0.06 0.05 0.04 0.05 0.06 0.07 0.08 0.07 0.05 0.02 0.01 0.01 0.01 0.01 0.00 0.01 0.00 0.01 0.02 0.03 0.04 0.06 0.09 0.10 0.11 0.12 0.13 0.13 0.13 0.13 0.12 0.09 0.07 0.07
0.00 0.00 0.00 0.00 0.01 0.03 0.04 0.04 0.06 0.06 0.06 0.05 0.05 0.05 0.05 0.04 0.04 0.03 0.01 0.01 0.01 0.01 0.01 0.01 0.01 0.01 0.01 0.02 0.03 0.04 0.05 0.08 0.12 0.12 0.12 0.12 0.12 0.14 0.15 0.16 0.16 0.14 0.13 0.12
0.00 0.01 0.01 0.01 0.02 0.03 0.05 0.06 0.07 0.07 0.05 0.03 0.03 0.03 0.02 0.01 0.01 0.01 0.00 0.00 0.00 0.00 0.00 0.00 0.02 0.02 0.01 0.02 0.05 0.07 0.07 0.08 0.11 0.12 0.12 0.13 0.15 0.18 0.20 0.21 0.21 0.18 0.13 0.13
0.01 0.03 0.04 0.05 0.06 0.06 0.06 0.05 0.04 0.03 0.02 0.02 0.01 0.01 0.01 0.01 0.01 0.01 0.00 0.00 0.00 0.00 0.00 0.00 0.03 0.03 0.02 0.03 0.07 0.08 0.10 0.12 0.13 0.14 0.14 0.15 0.19 0.20 0.21 0.23 0.22 0.19 0.14 0.11
0.01 0.02 0.04 0.05 0.06 0.06 0.05 0.04 0.02 0.01 0.01 0.01 0.01 0.01 0.01 0.01 0.00 0.00 0.00 0.00 0.00 0.01 0.00 0.01 0.04 0.03 0.03 0.04 0.11 0.12 0.15 0.17 0.16 0.13 0.13 0.16 0.17 0.16 0.19 0.22 0.21 0.19 0.18 0.16
0.01 0.02 0.04 0.04 0.05 0.04 0.03 0.02 0.01 0.00 0.00 0.01 0.01 0.01 0.00 0.00 0.00 0.00 0.00 0.00 0.01 0.02 0.02 0.03 0.03 0.04 0.06 0.10 0.17 0.18 0.18 0.18 0.17 0.16 0.15 0.17 0.19 0.19 0.19 0.20 0.21 0.22 0.20 0.19
0.02 0.03 0.04 0.05 0.04 0.02 0.01 0.00 0.00 0.00 0.01 0.00 0.00 0.00 0.00 0.00 0.00 0.00 0.01 0.01 0.01 0.02 0.02 0.03 0.05 0.13 0.17 0.19 0.19 0.16 0.16 0.17 0.18 0.20 0.21 0.22 0.23 0.22 0.21 0.22 0.23 0.24 0.23 0.20
0.02 0.04 0.05 0.05 0.03 0.01 0.00 0.00 0.00 0.00 0.00 0.00 0.00 0.00 0.00 0.00 0.00 0.01 0.01 0.01 0.02 0.05 0.04 0.03 0.10 0.23 0.22 0.19 0.15 0.14 0.15 0.16 0.18 0.20 0.24 0.26 0.29 0.29 0.26 0.26 0.28 0.26 0.24 0.23
0.03 0.04 0.05 0.05 0.02 0.01 0.00 0.00 0.00 0.00 0.00 0.00 0.00 0.01 0.01 0.01 0.01 0.02 0.03 0.02 0.03 0.06 0.05 0.05 0.14 0.20 0.18 0.14 0.12 0.13 0.14 0.17 0.20 0.24 0.27 0.29 0.31 0.33 0.34 0.33 0.31 0.31 0.30 0.28
0.05 0.06 0.06 0.04 0.01 0.00 0.00 0.00 0.00 0.00 0.00 0.00 0.00 0.01 0.01 0.02 0.02 0.02 0.03 0.03 0.05 0.07 0.05 0.06 0.13 0.15 0.14 0.11 0.12 0.13 0.16 0.21 0.27 0.29 0.29 0.29 0.30 0.33 0.36 0.38 0.37 0.33 0.31 0.31
0.07 0.07 0.05 0.03 0.01 0.00 0.00 0.00 0.00 0.00 0.00 0.00 0.00 0.01 0.01 0.03 0.04 0.04 0.03 0.04 0.05 0.07 0.06 0.07 0.10 0.12 0.11 0.12 0.14 0.17 0.21 0.26 0.34 0.38 0.36 0.34 0.32 0.34 0.35 0.37 0.39 0.38 0.35 0.33
0.08 0.07 0.04 0.02 0.01 0.01 0.01 0.02 0.02 0.01 0.01 0.01 0.01 0.01 0.01 0.02 0.03 0.03 0.04 0.05 0.05 0.07 0.07 0.07 0.09 0.11 0.13 0.15 0.18 0.21 0.26 0.29 0.32 0.33 0.32 0.33 0.33 0.34 0.36 0.39 0.40 0.40 0.38 0.36
0.08 0.05 0.03 0.01 0.01 0.01 0.02 0.02 0.03 0.03 0.03 0.03 0.03 0.02 0.02 0.02 0.03 0.04 0.05 0.06 0.06 0.07 0.07 0.09 0.11 0.13 0.15 0.18 0.21 0.24 0.27 0.30 0.33 0.36 0.36 0.36 0.36 0.38 0.39 0.42 0.43 0.42 0.41 0.38

GEFSNGP_prec_meanprecacc_126.txt.gz
Total_Precipitation_Accumulation
0.00 0.00 0.00 0.00 0.00 0.00 0.00 0.00 0.01 0.01 0.01 0.02 0.01 0.00 0.00 0.00 0.00 0.00 0.00 0.00 0.01 0.01 0.01 0.02 0.02 0.03 0.06 0.09 0.12 0.16 0.20 0.23 0.23 0.22 0.22 0.22 0.22 0.22 0.23 0.25 0.27 0.26 0.25 0.26
0.00 0.00 0.00 0.00 0.00 0.00 0.00 0.00 0.00 0.01 0.01 0.01 0.00 0.00 0.00 0.00 0.00 0.01 0.01 0.01 0.01 0.02 0.03 0.04 0.06 0.09 0.14 0.20 0.23 0.25 0.27 0.27 0.25 0.22 0.21 0.21 0.22 0.22 0.23 0.23 0.21 0.18 0.17 0.22
0.00 0.00 0.00 0.00 0.00 0.00 0.00 0.00 0.00 0.00 0.00 0.00 0.00 0.00 0.00 0.00 0.01 0.02 0.02 0.03 0.04 0.05 0.07 0.09 0.13 0.18 0.22 0.24 0.24 0.26 0.28 0.28 0.26 0.24 0.23 0.21 0.20 0.18 0.18 0.16 0.13 0.11 0.09 0.12
0.00 0.00 0.00 0.00 0.00 0.00 0.00 0.00 0.00 0.00 0.00 0.00 0.00 0.00 0.00 0.01 0.02 0.04 0.05 0.07 0.09 0.11 0.12 0.15 0.20 0.24 0.27 0.26 0.26 0.26 0.25 0.23 0.19 0.16 0.15 0.14 0.14 0.13 0.11 0.10 0.08 0.07 0.05 0.06
0.00 0.00 0.00 0.00 0.00 0.00 0.00 0.00 0.00 0.00 0.00 0.00 0.00 0.00 0.01 0.04 0.04 0.05 0.07 0.07 0.08 0.08 0.09 0.13 0.19 0.22 0.23 0.21 0.20 0.17 0.15 0.12 0.09 0.07 0.07 0.08 0.08 0.07 0.06 0.05 0.04 0.03 0.03 0.04
0.00 0.00 0.00 0.00 0.00 0.00 0.00 0.00 0.00 0.00 0.00 0.01 0.05 0.17 0.08 0.09 0.06 0.05 0.04 0.04 0.04 0.04 0.04 0.07 0.10 0.12 0.12 0.12 0.10 0.09 0.07 0.05 0.03 0.02 0.03 0.04 0.04 0.03 0.03 0.02 0.03 0.03 0.03 0.03
0.00 0.00 0.00 0.00 0.00 0.00 0.00 0.00 0.00 0.00 0.01 0.06 0.14 0.20 0.12 0.08 0.06 0.04 0.03 0.03 0.02 0.02 0.04 0.07 0.10 0.11 0.10 0.08 0.05 0.03 0.02 0.01 0.01 0.00 0.01 0.01 0.02 0.02 0.02 0.03 0.03 0.03 0.03 0.03
0.00 0.00 0.00 0.00 0.00 0.00 0.00 0.00 0.00 0.03 0.06 0.11 0.09 0.04 0.03 0.04 0.05 0.03 0.02 0.02 0.02 0.03 0.05 0.10 0.12 0.10 0.06 0.04 0.01 0.00 0.00 0.00 0.00 0.00 0.01 0.01 0.02 0.02 0.03 0.03 0.04 0.04 0.05 0.04
0.00 0.00 0.00 0.00 0.00 0.00 0.00 0.02 0.06 0.14 0.15 0.14 0.12 0.08 0.06 0.05 0.04 0.02 0.02 0.02 0.04 0.05 0.08 0.11 0.09 0.05 0.02 0.01 0.00 0.00 0.00 0.00 0.01 0.01 0.01 0.02 0.02 0.03 0.04 0.04 0.07 0.09 0.09 0.08
0.00 0.00 0.00 0.00 0.00 0.00 0.01 0.05 0.09 0.12 0.13 0.14 0.16 0.12 0.08 0.05 0.03 0.03 0.04 0.05 0.06 0.07 0.09 0.10 0.06 0.02 0.00 0.00 0.00 0.00 0.01 0.01 0.01 0.01 0.02 0.02 0.03 0.04 0.05 0.08 0.19 0.26 0.22 0.18
0.00 0.00 0.00 0.00 0.00 0.01 0.03 0.04 0.03 0.02 0.05 0.11 0.16 0.12 0.07 0.05 0.05 0.06 0.07 0.07 0.08 0.09 0.09 0.07 0.03 0.01 0.00 0.00 0.00 0.01 0.01 0.02 0.02 0.02 0.03 0.03 0.03 0.04 0.07 0.09 0.26 0.45 0.40 0.38
0.00 0.00 0.00 0.00 0.00 0.02 0.05 0.04 0.05 0.07 0.07 0.07 0.09 0.08 0.06 0.08 0.09 0.09 0.10 0.11 0.11 0.09 0.05 0.02 0.01 0.00 0.00 0.00 0.01 0.02 0.03 0.03 0.04 0.04 0.04 0.04 0.05 0.05 0.05 0.07 0.14 0.18 0.23 0.33
0.00 0.00 0.00 0.00 0.00 0.00 0.02 0.04 0.07 0.10 0.10 0.07 0.04 0.05 0.09 0.14 0.14 0.13 0.13 0.10 0.06 0.03 0.01 0.01 0.00 0.00 0.00 0.00 0.01 0.02 0.04 0.05 0.06 0.06 0.06 0.07 0.09 0.11 0.10 0.07 0.06 0.06 0.09 0.17
0.00 0.00 0.01 0.01 0.00 0.01 0.03 0.06 0.08 0.11 0.09 0.06 0.04 0.05 0.07 0.09 0.09 0.08 0.07 0.05 0.02 0.01 0.01 0.01 0.00 0.00 0.00 0.01 0.01 0.02 0.04 0.06 0.08 0.08 0.09 0.11 0.13 0.14 0.15 0.15 0.11 0.06 0.04 0.08
0.00 0.00 0.02 0.01 0.01 0.02 0.04 0.05 0.06 0.07 0.06 0.05 0.04 0.05 0.06 0.07 0.08 0.07 0.05 0.02 0.01 0.01 0.01 0.01 0.00 0.01 0.00 0.01 0.02 0.03 0.04 0.06 0.09 0.10 0.11 0.12 0.13 0.14 0.13 0.13 0.13 0.09 0.07 0.07
0.00 0.00 0.00 0.00 0.01 0.03 0.04 0.04 0.06 0.06 0.06 0.05 0.05 0.05 0.05 0.04 0.04 0.03 0.01 0.01 0.01 0.01 0.01 0.01 0.01 0.01 0.01 0.02 0.03 0.05 0.05 0.08 0.12 0.12 0.12 0.12 0.13 0.15 0.16 0.17 0.16 0.14 0.13 0.13
0.00 0.01 0.01 0.01 0.02 0.03 0.05 0.06 0.07 0.07 0.05 0.03 0.03 0.03 0.02 0.01 0.01 0.01 0.00 0.00 0.00 0.00 0.00 0.00 0.02 0.02 0.01 0.02 0.05 0.07 0.07 0.08 0.11 0.12 0.12 0.13 0.16 0.19 0.20 0.22 0.22 0.19 0.14 0.14
0.01 0.03 0.04 0.05 0.06 0.06 0.06 0.05 0.04 0.03 0.02 0.02 0.01 0.01 0.01 0.01 0.01 0.01 0.00 0.00 0.00 0.00 0.00 0.00 0.03 0.03 0.02 0.03 0.07 0.08 0.10 0.12 0.13 0.15 0.15 0.15 0.20 0.21 0.22 0.24 0.23 0.21 0.15 0.12
0.01 0.02 0.04 0.05 0.06 0.06 0.05 0.04 0.02 0.01 0.01 0.01 0.01 0.01 0.01 0.01 0.00 0.00 0.00 0.00 0.00 0.01 0.00 0.01 0.04 0.03 0.03 0.04 0.11 0.12 0.15 0.17 0.16 0.14 0.14 0.17 0.18 0.17 0.20 0.23 0.22 0.20 0.19 0.17
0.01 0.02 0.04 0.04 0.05 0.04 0.03 0.02 0.01 0.00 0.00 0.01 0.01 0.01 0.00 0.00 0.00 0.00 0.00 0.00 0.01 0.02 0.02 0.03 0.03 0.04 0.06 0.10 0.17 0.19 0.19 0.19 0.19 0.17 0.17 0.18 0.20 0.20 0.20 0.21 0.22 0.23 0.21 0.19
0.02 0.03 0.04 0.05 0.04 0.02 0.01 0.00 0.00 0.00 0.01 0.00 0.00 0.00 0.00 0.00 0.00 0.00 0.01 0.01 0.01 0.02 0.02 0.03 0.05 0.13 0.17 0.19 0.20 0.18 0.18 0.19 0.20 0.21 0.22 0.23 0.24 0.23 0.21 0.23 0.24 0.25 0.24 0.21
0.02 0.04 0.05 0.05 0.03 0.01 0.00 0.00 0.00 0.00 0.00 0.00 0.00 0.00 0.00 0.00 0.00 0.01 0.01 0.01 0.02 0.05 0.04 0.04 0.10 0.23 0.22 0.20 0.16 0.16 0.16 0.17 0.19 0.21 0.24 0.27 0.30 0.30 0.27 0.27 0.29 0.27 0.25 0.24
0.03 0.04 0.05 0.05 0.02 0.01 0.00 0.00 0.00 0.00 0.00 0.00 0.00 0.01 0.01 0.01 0.01 0.02 0.03 0.02 0.03 0.06 0.05 0.05 0.14 0.20 0.19 0.15 0.13 0.13 0.14 0.17 0.21 0.24 0.27 0.29 0.32 0.34 0.35 0.34 0.32 0.31 0.31 0.29
0.05 0.06 0.06 0.04 0.01 0.00 0.00 0.00 0.00 0.00 0.00 0.00 0.00 0.01 0.01 0.02 0.02 0.02 0.03 0.03 0.05 0.07 0.05 0.06 0.13 0.15 0.14 0.12 0.12 0.14 0.16 0.21 0.27 0.30 0.30 0.30 0.31 0.34 0.37 0.39 0.38 0.34 0.32 0.32
0.07 0.07 0.05 0.03 0.01 0.00 0.00 0.00 0.00 0.00 0.00 0.00 0.00 0.01 0.01 0.03 0.04 0.04 0.03 0.04 0.05 0.07 0.06 0.07 0.10 0.12 0.11 0.12 0.14 0.17 0.21 0.26 0.35 0.39 0.37 0.35 0.33 0.35 0.36 0.39 0.41 0.40 0.37 0.35
0.08 0.07 0.04 0.02 0.01 0.01 0.01 0.02 0.02 0.01 0.01 0.01 0.01 0.01 0.01 0.02 0.03 0.03 0.04 0.05 0.05 0.07 0.07 0.07 0.09 0.12 0.13 0.15 0.18 0.22 0.26 0.29 0.32 0.33 0.32 0.34 0.34 0.35 0.38 0.40 0.41 0.41 0.40 0.37
0.08 0.05 0.03 0.01 0.01 0.01 0.02 0.02 0.03 0.03 0.03 0.03 0.03 0.02 0.02 0.02 0.03 0.04 0.05 0.06 0.06 0.07 0.07 0.09 0.11 0.13 0.15 0.18 0.21 0.24 0.27 0.30 0.34 0.37 0.37 0.37 0.37 0.39 0.40 0.43 0.44 0.44 0.42 0.40

GEFSNGP_prec_meanprecacc_132.txt.gz
Total_Precipitation_Accumulation
0.00 0.00 0.00 0.00 0.00 0.00 0.00 0.00 0.01 0.01 0.01 0.02 0.01 0.00 0.00 0.00 0.00 0.00 0.00 0.00 0.01 0.01 0.01 0.02 0.02 0.03 0.06 0.09 0.12 0.16 0.20 0.23 0.23 0.22 0.22 0.22 0.22 0.22 0.23 0.25 0.27 0.26 0.25 0.26
0.00 0.00 0.00 0.00 0.00 0.00 0.00 0.00 0.00 0.01 0.01 0.01 0.00 0.00 0.00 0.00 0.00 0.01 0.01 0.01 0.01 0.02 0.03 0.04 0.06 0.09 0.14 0.20 0.23 0.25 0.27 0.27 0.25 0.22 0.21 0.21 0.22 0.22 0.23 0.23 0.21 0.18 0.17 0.22
0.00 0.00 0.00 0.00 0.00 0.00 0.00 0.00 0.00 0.00 0.00 0.00 0.00 0.00 0.00 0.00 0.01 0.02 0.02 0.03 0.04 0.05 0.07 0.09 0.13 0.18 0.22 0.24 0.24 0.26 0.28 0.28 0.26 0.24 0.23 0.21 0.20 0.18 0.18 0.16 0.13 0.11 0.09 0.12
0.00 0.00 0.00 0.00 0.00 0.00 0.00 0.00 0.00 0.00 0.00 0.00 0.00 0.00 0.00 0.01 0.02 0.04 0.05 0.07 0.09 0.11 0.12 0.15 0.20 0.24 0.27 0.26 0.26 0.26 0.25 0.23 0.19 0.16 0.15 0.14 0.14 0.13 0.11 0.10 0.08 0.07 0.05 0.06
0.00 0.00 0.00 0.00 0.00 0.00 0.00 0.00 0.00 0.00 0.00 0.00 0.00 0.00 0.01 0.04 0.04 0.05 0.07 0.07 0.08 0.08 0.09 0.13 0.19 0.22 0.23 0.21 0.20 0.17 0.15 0.12 0.09 0.07 0.07 0.08 0.08 0.07 0.06 0.05 0.04 0.03 0.03 0.04
0.00 0.00 0.00 0.00 0.00 0.00 0.00 0.00 0.00 0.00 0.00 0.01 0.05 0.17 0.08 0.09 0.06 0.05 0.04 0.04 0.04 0.04 0.04 0.07 0.10 0.12 0.12 0.12 0.10 0.09 0.07 0.05 0.03 0.02 0.03 0.04 0.04 0.03 0.03 0.02 0.03 0.03 0.03 0.03
0.00 0.00 0.00 0.00 0.00 0.00 0.00 0.00 0.00 0.00 0.01 0.06 0.14 0.20 0.12 0.08 0.06 0.04 0.03 0.03 0.02 0.02 0.04 0.07 0.10 0.11 0.10 0.08 0.05 0.03 0.02 0.01 0.01 0.00 0.01 0.01 0.02 0.02 0.02 0.03 0.03 0.03 0.03 0.03
0.00 0.00 0.00 0.00 0.00 0.00 0.00 0.00 0.00 0.03 0.06 0.11 0.09 0.04 0.03 0.04 0.05 0.03 0.02 0.02 0.02 0.03 0.05 0.10 0.12 0.10 0.06 0.04 0.01 0.00 0.00 0.00 0.00 0.00 0.01 0.01 0.02 0.02 0.03 0.03 0.04 0.04 0.05 0.04
0.00 0.00 0.00 0.00 0.00 0.00 0.00 0.02 0.06 0.14 0.15 0.14 0.12 0.08 0.06 0.05 0.04 0.02 0.02 0.02 0.04 0.05 0.08 0.11 0.09 0.05 0.02 0.01 0.00 0.00 0.00 0.00 0.01 0.01 0.01 0.02 0.02 0.03 0.04 0.04 0.07 0.09 0.09 0.08
0.00 0.00 0.00 0.00 0.00 0.00 0.01 0.05 0.09 0.12 0.13 0.14 0.16 0.12 0.08 0.05 0.03 0.03 0.04 0.05 0.06 0.07 0.09 0.10 0.06 0.02 0.00 0.00 0.00 0.00 0.01 0.01 0.01 0.01 0.02 0.02 0.03 0.04 0.05 0.08 0.19 0.26 0.22 0.18
0.00 0.00 0.00 0.00 0.00 0.01 0.03 0.04 0.03 0.02 0.05 0.11 0.16 0.12 0.07 0.05 0.05 0.06 0.07 0.07 0.08 0.09 0.09 0.07 0.03 0.01 0.00 0.00 0.00 0.01 0.01 0.02 0.02 0.02 0.03 0.03 0.03 0.04 0.07 0.09 0.26 0.45 0.40 0.38
0.00 0.00 0.00 0.00 0.00 0.02 0.05 0.04 0.05 0.07 0.07 0.07 0.09 0.08 0.06 0.08 0.09 0.09 0.10 0.11 0.11 0.09 0.05 0.02 0.01 0.00 0.00 0.00 0.01 0.02 0.03 0.03 0.04 0.04 0.04 0.04 0.05 0.05 0.05 0.07 0.14 0.18 0.23 0.33
0.00 0.00 0.00 0.00 0.00 0.00 0.02 0.04 0.07 0.10 0.10 0.07 0.04 0.05 0.09 0.14 0.14 0.13 0.13 0.10 0.06 0.03 0.01 0.01 0.00 0.00 0.00 0.00 0.01 0.02 0.04 0.05 0.06 0.06 0.06 0.07 0.09 0.11 0.10 0.07 0.06 0.06 0.10 0.17
0.00 0.00 0.01 0.01 0.00 0.01 0.03 0.06 0.08 0.11 0.09 0.06 0.04 0.05 0.07 0.09 0.09 0.08 0.07 0.05 0.02 0.01 0.01 0.01 0.00 0.00 0.00 0.01 0.01 0.02 0.04 0.06 0.08 0.08 0.09 0.11 0.13 0.14 0.16 0.15 0.11 0.06 0.04 0.08
0.00 0.00 0.02 0.01 0.01 0.02 0.04 0.05 0.06 0.07 0.06 0.05 0.04 0.05 0.06 0.07 0.08 0.07 0.05 0.02 0.01 0.01 0.01 0.01 0.00 0.01 0.00 0.01 0.02 0.03 0.04 0.06 0.09 0.10 0.11 0.12 0.13 0.14 0.14 0.14 0.13 0.10 0.07 0.07
0.00 0.00 0.00 0.00 0.01 0.03 0.04 0.04 0.06 0.06 0.06 0.05 0.05 0.05 0.05 0.04 0.04 0.03 0.01 0.01 0.01 0.01 0.01 0.01 0.01 0.01 0.01 0.02 0.03 0.05 0.05 0.08 0.12 0.12 0.13 0.13 0.13 0.15 0.16 0.17 0.17 0.15 0.14 0.13
0.00 0.01 0.01 0.01 0.02 0.03 0.05 0.06 0.07 0.07 0.05 0.03 0.03 0.03 0.02 0.01 0.01 0.01 0.00 0.00 0.00 0.00 0.00 0.00 0.02 0.02 0.01 0.02 0.05 0.07 0.07 0.08 0.11 0.12 0.13 0.13 0.16 0.20 0.21 0.23 0.23 0.20 0.15 0.14
0.01 0.03 0.04 0.05 0.06 0.06 0.06 0.05 0.04 0.03 0.02 0.02 0.01 0.01 0.01 0.01 0.01 0.01 0.00 0.00 0.00 0.00 0.00 0.00 0.03 0.03 0.02 0.03 0.07 0.08 0.11 0.12 0.14 0.15 0.15 0.16 0.20 0.22 0.24 0.25 0.24 0.21 0.16 0.12
0.01 0.02 0.04 0.05 0.06 0.06 0.05 0.04 0.02 0.01 0.01 0.01 0.01 0.01 0.01 0.01 0.00 0.00 0.00 0.00 0.00 0.01 0.00 0.01 0.04 0.03 0.03 0.04 0.11 0.13 0.16 0.17 0.17 0.15 0.15 0.18 0.19 0.18 0.21 0.24 0.23 0.21 0.19 0.18
0.01 0.02 0.04 0.04 0.05 0.04 0.03 0.02 0.01 0.00 0.00 0.01 0.01 0.01 0.00 0.00 0.00 0.00 0.00 0.00 0.01 0.02 0.02 0.03 0.03 0.04 0.06 0.10 0.17 0.19 0.20 0.20 0.19 0.18 0.17 0.19 0.21 0.21 0.21 0.22 0.23 0.23 0.22 0.20
0.02 0.03 0.04 0.05 0.04 0.02 0.01 0.00 0.00 0.00 0.01 0.00 0.00 0.00 0.00 0.00 0.00 0.00 0.01 0.01 0.01 0.02 0.02 0.03 0.05 0.13 0.17 0.20 0.21 0.19 0.19 0.20 0.21 0.22 0.23 0.24 0.25 0.23 0.22 0.23 0.24 0.25 0.24 0.22
0.02 0.04 0.05 0.05 0.03 0.01 0.00 0.00 0.00 0.00 0.00 0.00 0.00 0.00 0.00 0.00 0.00 0.01 0.01 0.01 0.02 0.05 0.04 0.04 0.10 0.23 0.23 0.21 0.17 0.17 0.17 0.18 0.20 0.22 0.25 0.27 0.30 0.31 0.27 0.27 0.30 0.28 0.25 0.24
0.03 0.05 0.05 0.05 0.02 0.01 0.00 0.00 0.00 0.00 0.00 0.00 0.00 0.01 0.01 0.01 0.01 0.02 0.03 0.02 0.03 0.06 0.05 0.05 0.14 0.21 0.19 0.15 0.13 0.14 0.14 0.17 0.21 0.24 0.27 0.30 0.32 0.35 0.36 0.35 0.33 0.32 0.32 0.30
0.06 0.06 0.06 0.04 0.01 0.00 0.00 0.00 0.00 0.00 0.00 0.00 0.00 0.01 0.01 0.02 0.02 0.02 0.03 0.03 0.05 0.07 0.05 0.06 0.13 0.16 0.15 0.12 0.12 0.14 0.16 0.21 0.27 0.30 0.30 0.31 0.32 0.35 0.38 0.40 0.39 0.35 0.33 0.33
0.07 0.07 0.05 0.03 0.01 0.00 0.00 0.00 0.00 0.00 0.00 0.00 0.00 0.01 0.01 0.03 0.04 0.04 0.03 0.04 0.05 0.07 0.06 0.07 0.10 0.12 0.11 0.12 0.14 0.18 0.21 0.27 0.35 0.40 0.38 0.36 0.34 0.35 0.37 0.40 0.42 0.41 0.38 0.36
0.08 0.07 0.04 0.02 0.01 0.01 0.01 0.02 0.02 0.01 0.01 0.01 0.01 0.01 0.01 0.02 0.03 0.03 0.04 0.05 0.05 0.07 0.07 0.07 0.09 0.12 0.13 0.15 0.18 0.22 0.26 0.29 0.32 0.34 0.33 0.35 0.34 0.36 0.39 0.41 0.43 0.42 0.41 0.39
0.08 0.05 0.03 0.01 0.01 0.01 0.02 0.02 0.03 0.03 0.03 0.03 0.03 0.02 0.02 0.02 0.03 0.04 0.05 0.06 0.06 0.07 0.07 0.09 0.11 0.13 0.16 0.18 0.21 0.24 0.28 0.30 0.34 0.38 0.38 0.38 0.38 0.40 0.41 0.45 0.46 0.45 0.44 0.42

GEFSNGP_prec_meanprecacc_138.txt.gz
Total_Precipitation_Accumulation
0.00 0.00 0.00 0.00 0.00 0.00 0.00 0.00 0.01 0.01 0.01 0.02 0.01 0.00 0.00 0.00 0.00 0.00 0.00 0.00 0.01 0.01 0.01 0.02 0.02 0.03 0.06 0.09 0.12 0.16 0.20 0.23 0.23 0.22 0.22 0.22 0.22 0.22 0.23 0.25 0.27 0.26 0.25 0.26
0.00 0.00 0.00 0.00 0.00 0.00 0.00 0.00 0.00 0.01 0.01 0.01 0.00 0.00 0.00 0.00 0.00 0.01 0.01 0.01 0.01 0.02 0.03 0.04 0.06 0.09 0.14 0.20 0.23 0.25 0.27 0.27 0.25 0.22 0.21 0.21 0.22 0.22 0.23 0.23 0.21 0.18 0.17 0.22
0.00 0.00 0.00 0.00 0.00 0.00 0.00 0.00 0.00 0.00 0.00 0.00 0.00 0.00 0.00 0.00 0.01 0.02 0.02 0.03 0.04 0.05 0.07 0.09 0.13 0.18 0.22 0.24 0.24 0.26 0.28 0.28 0.26 0.24 0.23 0.21 0.20 0.18 0.18 0.16 0.13 0.11 0.09 0.12
0.01 0.01 0.01 0.00 0.00 0.00 0.00 0.00 0.00 0.00 0.00 0.00 0.00 0.00 0.00 0.01 0.02 0.04 0.05 0.07 0.09 0.11 0.12 0.15 0.20 0.24 0.27 0.26 0.26 0.26 0.25 0.23 0.19 0.16 0.15 0.14 0.14 0.13 0.11 0.10 0.08 0.07 0.05 0.06
0.01 0.01 0.01 0.00 0.00 0.00 0.00 0.00 0.00 0.00 0.00 0.00 0.00 0.00 0.01 0.04 0.04 0.05 0.07 0.07 0.08 0.08 0.09 0.13 0.19 0.22 0.23 0.21 0.20 0.17 0.15 0.12 0.09 0.07 0.07 0.08 0.08 0.07 0.06 0.05 0.04 0.03 0.03 0.04
0.02 0.01 0.00 0.00 0.00 0.00 0.00 0.00 0.00 0.00 0.00 0.01 0.05 0.17 0.08 0.09 0.06 0.05 0.04 0.04 0.04 0.04 0.04 0.07 0.10 0.12 0.12 0.12 0.10 0.09 0.07 0.05 0.03 0.02 0.03 0.04 0.04 0.03 0.03 0.02 0.03 0.03 0.03 0.03
0.02 0.01 0.00 0.00 0.00 0.00 0.00 0.00 0.00 0.00 0.01 0.06 0.14 0.20 0.12 0.08 0.06 0.04 0.03 0.03 0.02 0.02 0.04 0.07 0.10 0.11 0.10 0.08 0.05 0.03 0.02 0.01 0.01 0.00 0.01 0.01 0.02 0.02 0.02 0.03 0.03 0.03 0.03 0.03
0.01 0.01 0.00 0.00 0.00 0.00 0.00 0.00 0.00 0.03 0.06 0.11 0.09 0.04 0.03 0.04 0.05 0.03 0.02 0.02 0.02 0.03 0.05 0.10 0.12 0.10 0.06 0.04 0.01 0.00 0.00 0.00 0.00 0.00 0.01 0.01 0.02 0.02 0.03 0.03 0.04 0.04 0.05 0.04
0.00 0.00 0.00 0.00 0.00 0.00 0.00 0.02 0.06 0.14 0.15 0.14 0.12 0.08 0.06 0.05 0.04 0.02 0.02 0.02 0.04 0.05 0.08 0.11 0.09 0.05 0.02 0.01 0.00 0.00 0.00 0.00 0.01 0.01 0.01 0.02 0.02 0.03 0.04 0.04 0.07 0.09 0.09 0.08
0.00 0.00 0.00 0.00 0.00 0.00 0.01 0.05 0.09 0.12 0.13 0.14 0.16 0.12 0.08 0.05 0.03 0.03 0.04 0.05 0.06 0.07 0.09 0.10 0.06 0.02 0.00 0.00 0.00 0.00 0.01 0.01 0.01 0.01 0.02 0.02 0.03 0.04 0.05 0.08 0.19 0.26 0.22 0.18
0.00 0.00 0.00 0.00 0.00 0.01 0.03 0.04 0.03 0.02 0.05 0.11 0.16 0.12 0.07 0.05 0.05 0.06 0.07 0.07 0.08 0.09 0.09 0.07 0.03 0.01 0.00 0.00 0.00 0.01 0.01 0.02 0.02 0.02 0.03 0.03 0.03 0.04 0.07 0.09 0.26 0.45 0.41 0.39
0.00 0.00 0.00 0.00 0.00 0.02 0.05 0.04 0.05 0.07 0.07 0.07 0.09 0.08 0.06 0.08 0.09 0.09 0.10 0.11 0.11 0.09 0.05 0.02 0.01 0.00 0.00 0.00 0.01 0.02 0.03 0.03 0.04 0.04 0.04 0.04 0.05 0.05 0.05 0.07 0.14 0.18 0.23 0.34
0.00 0.00 0.00 0.00 0.00 0.00 0.02 0.04 0.07 0.10 0.10 0.07 0.04 0.05 0.09 0.14 0.14 0.13 0.13 0.10 0.06 0.03 0.01 0.01 0.00 0.00 0.00 0.00 0.01 0.02 0.04 0.05 0.06 0.06 0.06 0.07 0.09 0.11 0.11 0.07 0.06 0.07 0.10 0.18
0.00 0.00 0.01 0.01 0.00 0.01 0.03 0.06 0.08 0.11 0.09 0.06 0.04 0.05 0.07 0.09 0.09 0.08 0.07 0.05 0.02 0.01 0.01 0.01 0.00 0.00 0.00 0.01 0.01 0.02 0.04 0.06 0.08 0.08 0.09 0.11 0.13 0.14 0.16 0.16 0.11 0.06 0.04 0.08
0.00 0.00 0.02 0.01 0.01 0.02 0.04 0.05 0.06 0.07 0.06 0.05 0.04 0.05 0.06 0.07 0.08 0.07 0.05 0.02 0.01 0.01 0.01 0.01 0.00 0.01 0.00 0.01 0.02 0.03 0.04 0.06 0.09 0.10 0.11 0.12 0.13 0.14 0.14 0.14 0.13 0.10 0.07 0.07
0.00 0.00 0.00 0.00 0.01 0.03 0.04 0.04 0.06 0.06 0.06 0.05 0.05 0.05 0.05 0.04 0.04 0.03 0.01 0.01 0.01 0.01 0.01 0.01 0.01 0.01 0.01 0.02 0.03 0.05 0.05 0.08 0.12 0.12 0.13 0.13 0.13 0.15 0.16 0.17 0.17 0.15 0.14 0.13
0.00 0.01 0.01 0.01 0.02 0.03 0.05 0.06 0.07 0.07 0.05 0.03 0.03 0.03 0.02 0.01 0.01 0.01 0.00 0.00 0.00 0.00 0.00 0.00 0.02 0.02 0.01 0.02 0.05 0.07 0.07 0.08 0.11 0.12 0.13 0.14 0.16 0.20 0.22 0.24 0.24 0.20 0.15 0.14
0.01 0.03 0.04 0.05 0.06 0.06 0.06 0.05 0.04 0.03 0.02 0.02 0.01 0.01 0.01 0.01 0.01 0.01 0.00 0.00 0.00 0.00 0.00 0.00 0.03 0.03 0.02 0.03 0.07 0.08 0.11 0.13 0.14 0.15 0.15 0.16 0.21 0.23 0.24 0.26 0.24 0.22 0.16 0.12
0.01 0.02 0.04 0.05 0.06 0.06 0.05 0.04 0.02 0.01 0.01 0.01 0.01 0.01 0.01 0.01 0.00 0.00 0.00 0.00 0.00 0.01 0.00 0.01 0.04 0.03 0.03 0.04 0.11 0.13 0.16 0.18 0.17 0.15 0.15 0.18 0.19 0.18 0.21 0.24 0.23 0.21 0.20 0.18
0.01 0.02 0.04 0.04 0.05 0.04 0.03 0.02 0.01 0.00 0.00 0.01 0.01 0.01 0.00 0.00 0.00 0.00 0.00 0.00 0.01 0.02 0.02 0.03 0.03 0.04 0.06 0.10 0.17 0.19 0.20 0.20 0.20 0.18 0.18 0.19 0.21 0.21 0.21 0.22 0.23 0.23 0.22 0.20
0.02 0.03 0.04 0.05 0.04 0.02 0.01 0.00 0.00 0.00 0.01 0.00 0.00 0.00 0.00 0.00 0.00 0.00 0.01 0.01 0.01 0.02 0.02 0.03 0.05 0.13 0.17 0.20 0.21 0.19 0.19 0.20 0.21 0.22 0.23 0.24 0.25 0.23 0.22 0.23 0.25 0.25 0.24 0.22
0.02 0.04 0.05 0.05 0.03 0.01 0.00 0.00 0.00 0.00 0.00 0.00 0.00 0.00 0.00 0.00 0.00 0.01 0.01 0.01 0.02 0.05 0.04 0.04 0.10 0.23 0.23 0.21 0.17 0.17 0.17 0.18 0.20 0.22 0.25 0.28 0.31 0.31 0.27 0.27 0.30 0.28 0.26 0.25
0.04 0.05 0.06 0.05 0.02 0.01 0.00 0.00 0.00 0.00 0.00 0.00 0.00 0.01 0.01 0.01 0.01 0.03 0.03 0.02 0.03 0.06 0.05 0.05 0.14 0.21 0.20 0.15 0.13 0.14 0.14 0.17 0.21 0.25 0.27 0.30 0.32 0.35 0.37 0.35 0.33 0.33 0.33 0.31
0.06 0.07 0.06 0.04 0.02 0.01 0.00 0.00 0.00 0.00 0.01 0.01 0.01 0.01 0.02 0.02 0.02 0.02 0.03 0.03 0.05 0.07 0.05 0.06 0.13 0.16 0.15 0.12 0.12 0.14 0.16 0.21 0.28 0.30 0.30 0.31 0.32 0.35 0.39 0.41 0.40 0.36 0.34 0.34
0.08 0.08 0.06 0.03 0.02 0.01 0.01 0.01 0.01 0.01 0.01 0.01 0.01 0.01 0.01 0.03 0.04 0.04 0.03 0.04 0.05 0.07 0.06 0.07 0.10 0.12 0.11 0.12 0.14 0.18 0.21 0.27 0.36 0.40 0.39 0.37 0.35 0.36 0.38 0.40 0.43 0.42 0.39 0.37
0.09 0.08 0.05 0.03 0.02 0.02 0.02 0.03 0.03 0.02 0.02 0.02 0.02 0.01 0.02 0.02 0.03 0.03 0.04 0.05 0.05 0.07 0.07 0.07 0.09 0.12 0.13 0.15 0.18 0.22 0.26 0.30 0.33 0.34 0.33 0.35 0.35 0.37 0.39 0.42 0.44 0.44 0.43 0.40
0.09 0.06 0.04 0.03 0.02 0.02 0.02 0.03 0.04 0.04 0.04 0.04 0.04 0.02 0.02 0.02 0.03 0.04 0.05 0.06 0.06 0.07 0.08 0.09 0.11 0.13 0.16 0.18 0.21 0.25 0.28 0.31 0.35 0.38 0.38 0.39 0.39 0.41 0.42 0.46 0.47 0.46 0.45 0.43

GEFSNGP_prec_meanprecacc_144.txt.gz
Total_Precipitation_Accumulation
0.01 0.00 0.00 0.01 0.00 0.00 0.00 0.00 0.01 0.01 0.01 0.02 0.01 0.00 0.00 0.00 0.00 0.00 0.00 0.00 0.01 0.01 0.01 0.02 0.02 0.03 0.06 0.09 0.12 0.16 0.20 0.23 0.23 0.22 0.22 0.22 0.22 0.22 0.23 0.25 0.27 0.26 0.25 0.27
0.02 0.01 0.00 0.00 0.00 0.00 0.00 0.00 0.00 0.01 0.01 0.01 0.00 0.00 0.00 0.00 0.00 0.01 0.01 0.01 0.01 0.02 0.03 0.04 0.06 0.09 0.14 0.20 0.23 0.25 0.27 0.27 0.25 0.22 0.21 0.21 0.22 0.22 0.23 0.23 0.21 0.18 0.17 0.22
0.04 0.01 0.02 0.01 0.00 0.00 0.00 0.00 0.00 0.00 0.00 0.00 0.00 0.00 0.00 0.00 0.01 0.02 0.02 0.03 0.04 0.05 0.07 0.09 0.13 0.18 0.22 0.24 0.24 0.26 0.28 0.28 0.26 0.24 0.23 0.21 0.20 0.18 0.18 0.16 0.13 0.11 0.09 0.12
0.05 0.04 0.06 0.02 0.00 0.00 0.00 0.00 0.00 0.00 0.00 0.00 0.00 0.00 0.00 0.01 0.02 0.04 0.05 0.07 0.09 0.11 0.12 0.15 0.20 0.24 0.27 0.26 0.26 0.26 0.25 0.23 0.19 0.16 0.15 0.14 0.14 0.13 0.11 0.10 0.08 0.07 0.05 0.06
0.06 0.05 0.03 0.01 0.00 0.00 0.00 0.00 0.00 0.00 0.00 0.00 0.00 0.00 0.01 0.04 0.04 0.05 0.07 0.07 0.08 0.08 0.09 0.13 0.19 0.22 0.23 0.21 0.20 0.17 0.15 0.12 0.09 0.07 0.07 0.08 0.08 0.07 0.06 0.05 0.04 0.03 0.03 0.04
0.07 0.05 0.02 0.00 0.00 0.00 0.00 0.00 0.00 0.00 0.00 0.01 0.05 0.17 0.08 0.09 0.06 0.05 0.04 0.04 0.04 0.04 0.04 0.07 0.10 0.12 0.12 0.12 0.10 0.09 0.07 0.05 0.03 0.02 0.03 0.04 0.04 0.03 0.03 0.02 0.03 0.03 0.03 0.03
0.06 0.04 0.01 0.00 0.00 0.00 0.00 0.00 0.00 0.00 0.01 0.06 0.14 0.20 0.12 0.08 0.06 0.04 0.03 0.03 0.02 0.02 0.04 0.07 0.10 0.11 0.10 0.08 0.05 0.03 0.02 0.01 0.01 0.00 0.01 0.01 0.02 0.02 0.02 0.03 0.03 0.03 0.03 0.03
0.04 0.03 0.01 0.00 0.00 0.00 0.00 0.00 0.00 0.03 0.06 0.11 0.09 0.04 0.03 0.04 0.05 0.03 0.02 0.02 0.02 0.03 0.05 0.10 0.12 0.10 0.06 0.04 0.01 0.00 0.00 0.00 0.00 0.00 0.01 0.01 0.02 0.02 0.03 0.03 0.04 0.04 0.05 0.04
0.02 0.02 0.00 0.00 0.00 0.00 0.00 0.02 0.06 0.14 0.15 0.14 0.12 0.08 0.06 0.05 0.04 0.02 0.02 0.02 0.04 0.05 0.08 0.11 0.09 0.05 0.02 0.01 0.00 0.00 0.00 0.00 0.01 0.01 0.01 0.02 0.02 0.03 0.04 0.04 0.07 0.09 0.09 0.08
0.01 0.00 0.00 0.00 0.00 0.00 0.01 0.05 0.09 0.12 0.13 0.14 0.16 0.12 0.08 0.05 0.03 0.03 0.04 0.05 0.06 0.07 0.09 0.10 0.06 0.02 0.00 0.00 0.00 0.00 0.01 0.01 0.01 0.01 0.02 0.02 0.03 0.04 0.05 0.08 0.19 0.26 0.22 0.18
0.01 0.00 0.00 0.00 0.00 0.01 0.03 0.04 0.03 0.03 0.05 0.11 0.16 0.12 0.07 0.05 0.05 0.06 0.07 0.07 0.08 0.09 0.09 0.07 0.03 0.01 0.00 0.00 0.00 0.01 0.01 0.02 0.02 0.02 0.03 0.03 0.03 0.04 0.07 0.09 0.26 0.45 0.41 0.39
0.00 0.00 0.00 0.00 0.00 0.02 0.05 0.04 0.05 0.07 0.07 0.07 0.09 0.08 0.06 0.08 0.09 0.09 0.10 0.11 0.11 0.09 0.05 0.02 0.01 0.00 0.00 0.00 0.01 0.02 0.03 0.03 0.04 0.04 0.04 0.04 0.05 0.05 0.05 0.07 0.14 0.18 0.23 0.34
0.00 0.00 0.00 0.00 0.00 0.01 0.02 0.04 0.07 0.10 0.10 0.07 0.04 0.05 0.09 0.14 0.14 0.13 0.13 0.10 0.06 0.03 0.01 0.01 0.00 0.00 0.00 0.00 0.01 0.02 0.04 0.05 0.06 0.06 0.06 0.07 0.09 0.11 0.11 0.07 0.06 0.07 0.10 0.18
0.00 0.00 0.01 0.01 0.01 0.01 0.03 0.06 0.08 0.11 0.09 0.06 0.04 0.05 0.07 0.09 0.09 0.08 0.07 0.05 0.02 0.01 0.01 0.01 0.00 0.00 0.00 0.01 0.01 0.02 0.04 0.06 0.08 0.08 0.09 0.11 0.13 0.14 0.16 0.16 0.11 0.06 0.04 0.08
0.00 0.00 0.02 0.01 0.01 0.02 0.04 0.05 0.06 0.07 0.06 0.05 0.04 0.05 0.06 0.07 0.08 0.07 0.05 0.02 0.01 0.01 0.01 0.01 0.00 0.01 0.00 0.01 0.02 0.03 0.04 0.06 0.09 0.10 0.11 0.12 0.13 0.14 0.14 0.14 0.14 0.10 0.07 0.07
0.00 0.00 0.00 0.00 0.01 0.03 0.04 0.04 0.06 0.07 0.06 0.05 0.05 0.05 0.05 0.04 0.04 0.03 0.01 0.01 0.01 0.01 0.01 0.01 0.01 0.01 0.01 0.02 0.03 0.05 0.05 0.08 0.12 0.12 0.13 0.13 0.13 0.15 0.17 0.18 0.17 0.15 0.14 0.13
0.01 0.01 0.01 0.01 0.02 0.03 0.05 0.06 0.07 0.07 0.05 0.03 0.03 0.03 0.02 0.01 0.01 0.01 0.00 0.00 0.00 0.00 0.00 0.00 0.02 0.02 0.01 0.02 0.05 0.07 0.07 0.08 0.11 0.13 0.13 0.14 0.17 0.20 0.22 0.24 0.24 0.21 0.15 0.14
0.02 0.03 0.04 0.06 0.06 0.06 0.06 0.05 0.04 0.03 0.02 0.02 0.01 0.01 0.01 0.01 0.01 0.01 0.00 0.00 0.00 0.00 0.00 0.00 0.03 0.03 0.02 0.03 0.07 0.08 0.11 0.13 0.14 0.15 0.16 0.16 0.21 0.23 0.24 0.26 0.25 0.22 0.16 0.12
0.01 0.02 0.04 0.06 0.06 0.06 0.05 0.04 0.02 0.01 0.01 0.01 0.01 0.01 0.01 0.01 0.00 0.00 0.00 0.00 0.00 0.01 0.00 0.01 0.04 0.03 0.03 0.04 0.11 0.13 0.16 0.18 0.17 0.15 0.15 0.18 0.19 0.18 0.21 0.24 0.24 0.21 0.20 0.18
0.02 0.03 0.04 0.05 0.05 0.04 0.03 0.02 0.01 0.01 0.01 0.01 0.01 0.01 0.00 0.00 0.00 0.00 0.00 0.00 0.01 0.02 0.02 0.03 0.03 0.04 0.06 0.10 0.17 0.20 0.20 0.20 0.20 0.18 0.18 0.19 0.21 0.21 0.21 0.22 0.23 0.24 0.22 0.21
0.02 0.03 0.04 0.05 0.04 0.02 0.01 0.00 0.00 0.01 0.01 0.01 0.01 0.00 0.00 0.00 0.00 0.00 0.01 0.01 0.01 0.02 0.02 0.03 0.05 0.13 0.17 0.20 0.21 0.19 0.19 0.21 0.22 0.22 0.23 0.24 0.25 0.24 0.22 0.23 0.25 0.25 0.25 0.22
0.03 0.04 0.05 0.05 0.03 0.01 0.00 0.00 0.00 0.01 0.00 0.00 0.00 0.01 0.01 0.01 0.01 0.01 0.01 0.01 0.02 0.05 0.04 0.04 0.10 0.23 0.23 0.21 0.17 0.17 0.17 0.18 0.20 0.22 0.25 0.28 0.31 0.31 0.28 0.28 0.30 0.28 0.26 0.25
0.04 0.05 0.06 0.05 0.03 0.01 0.01 0.00 0.01 0.01 0.01 0.01 0.01 0.02 0.02 0.02 0.02 0.03 0.04 0.02 0.03 0.06 0.05 0.05 0.14 0.21 0.20 0.16 0.14 0.14 0.15 0.17 0.21 0.25 0.28 0.30 0.33 0.36 0.37 0.36 0.34 0.33 0.33 0.31
0.07 0.07 0.07 0.05 0.02 0.01 0.01 0.01 0.01 0.02 0.02 0.02 0.02 0.02 0.03 0.04 0.04 0.03 0.04 0.04 0.06 0.07 0.05 0.07 0.13 0.16 0.15 0.12 0.12 0.14 0.17 0.22 0.28 0.30 0.31 0.32 0.33 0.35 0.39 0.41 0.41 0.37 0.35 0.34
0.09 0.09 0.07 0.04 0.02 0.02 0.02 0.02 0.02 0.03 0.02 0.03 0.03 0.03 0.03 0.04 0.06 0.05 0.05 0.05 0.06 0.08 0.07 0.07 0.11 0.13 0.12 0.12 0.14 0.18 0.21 0.27 0.36 0.40 0.39 0.37 0.35 0.36 0.38 0.41 0.43 0.43 0.40 0.37
0.12 0.10 0.07 0.05 0.04 0.04 0.05 0.05 0.04 0.04 0.04 0.04 0.04 0.04 0.04 0.04 0.05 0.05 0.05 0.06 0.06 0.08 0.08 0.08 0.09 0.12 0.13 0.15 0.18 0.22 0.26 0.30 0.33 0.34 0.34 0.35 0.35 0.37 0.40 0.42 0.44 0.44 0.43 0.40
0.12 0.10 0.07 0.05 0.05 0.05 0.05 0.05 0.06 0.06 0.06 0.07 0.07 0.05 0.04 0.04 0.05 0.05 0.06 0.07 0.07 0.08 0.08 0.10 0.11 0.14 0.16 0.18 0.21 0.25 0.28 0.31 0.35 0.38 0.39 0.39 0.39 0.41 0.43 0.46 0.48 0.47 0.46 0.43

GEFSNGP_prec_meanprecacc_150.txt.gz
Total_Precipitation_Accumulation
0.04 0.02 0.02 0.02 0.02 0.01 0.02 0.03 0.02 0.01 0.01 0.02 0.01 0.00 0.00 0.00 0.00 0.00 0.00 0.00 0.01 0.01 0.01 0.02 0.02 0.03 0.06 0.09 0.12 0.16 0.20 0.23 0.23 0.22 0.22 0.22 0.22 0.22 0.23 0.25 0.27 0.26 0.25 0.27
0.03 0.02 0.02 0.02 0.01 0.01 0.01 0.01 0.00 0.01 0.01 0.01 0.00 0.00 0.00 0.00 0.00 0.01 0.01 0.01 0.01 0.02 0.03 0.04 0.06 0.09 0.14 0.20 0.23 0.25 0.27 0.27 0.25 0.22 0.21 0.21 0.22 0.22 0.23 0.23 0.21 0.18 0.17 0.22
0.06 0.03 0.04 0.04 0.01 0.01 0.00 0.00 0.00 0.00 0.00 0.00 0.00 0.00 0.00 0.00 0.01 0.02 0.02 0.03 0.04 0.05 0.07 0.09 0.13 0.18 0.22 0.24 0.24 0.26 0.28 0.28 0.26 0.24 0.23 0.21 0.20 0.19 0.18 0.16 0.13 0.11 0.09 0.12
0.09 0.06 0.10 0.04 0.01 0.00 0.00 0.00 0.00 0.00 0.00 0.00 0.00 0.00 0.00 0.01 0.02 0.04 0.05 0.07 0.09 0.11 0.12 0.15 0.20 0.24 0.27 0.26 0.26 0.26 0.25 0.23 0.19 0.16 0.15 0.14 0.14 0.13 0.11 0.10 0.08 0.07 0.05 0.06
0.11 0.10 0.06 0.01 0.00 0.00 0.01 0.00 0.00 0.00 0.00 0.00 0.00 0.00 0.01 0.04 0.04 0.05 0.07 0.07 0.08 0.08 0.09 0.13 0.19 0.22 0.23 0.21 0.20 0.17 0.15 0.12 0.09 0.07 0.07 0.08 0.08 0.07 0.06 0.05 0.04 0.04 0.03 0.04
0.12 0.09 0.04 0.01 0.00 0.00 0.00 0.01 0.00 0.00 0.00 0.01 0.05 0.17 0.08 0.09 0.06 0.05 0.04 0.04 0.04 0.04 0.04 0.07 0.10 0.12 0.12 0.12 0.10 0.09 0.07 0.05 0.03 0.02 0.03 0.04 0.04 0.03 0.03 0.02 0.03 0.03 0.03 0.03
0.11 0.07 0.02 0.00 0.00 0.00 0.01 0.01 0.01 0.01 0.01 0.06 0.14 0.20 0.12 0.08 0.06 0.04 0.03 0.03 0.02 0.02 0.04 0.07 0.10 0.11 0.10 0.08 0.05 0.03 0.02 0.01 0.01 0.00 0.01 0.01 0.02 0.02 0.02 0.03 0.03 0.03 0.03 0.03
0.07 0.06 0.02 0.00 0.00 0.00 0.00 0.00 0.01 0.03 0.06 0.11 0.09 0.04 0.03 0.04 0.05 0.03 0.02 0.02 0.02 0.03 0.05 0.10 0.12 0.10 0.06 0.04 0.01 0.00 0.00 0.00 0.00 0.00 0.01 0.01 0.02 0.02 0.03 0.03 0.04 0.04 0.05 0.04
0.04 0.03 0.00 0.00 0.00 0.00 0.00 0.02 0.06 0.14 0.15 0.14 0.12 0.08 0.06 0.05 0.04 0.02 0.02 0.02 0.04 0.05 0.08 0.11 0.09 0.05 0.02 0.01 0.00 0.00 0.00 0.00 0.01 0.01 0.01 0.02 0.02 0.03 0.04 0.04 0.07 0.09 0.09 0.08
0.03 0.01 0.01 0.00 0.00 0.00 0.01 0.05 0.09 0.12 0.13 0.14 0.16 0.12 0.08 0.05 0.03 0.03 0.04 0.05 0.06 0.07 0.09 0.10 0.06 0.02 0.00 0.00 0.00 0.00 0.01 0.01 0.01 0.01 0.02 0.02 0.03 0.04 0.05 0.08 0.19 0.26 0.22 0.18
0.02 0.01 0.01 0.00 0.00 0.01 0.03 0.04 0.03 0.03 0.05 0.11 0.16 0.12 0.07 0.05 0.05 0.06 0.07 0.07 0.08 0.09 0.09 0.07 0.03 0.01 0.00 0.00 0.00 0.01 0.01 0.02 0.02 0.02 0.03 0.03 0.03 0.04 0.07 0.09 0.26 0.45 0.41 0.39
0.01 0.00 0.00 0.00 0.00 0.02 0.05 0.04 0.05 0.07 0.07 0.07 0.09 0.08 0.06 0.08 0.09 0.09 0.10 0.11 0.11 0.09 0.05 0.02 0.01 0.00 0.00 0.00 0.01 0.02 0.03 0.03 0.04 0.04 0.04 0.04 0.05 0.05 0.05 0.07 0.14 0.18 0.23 0.34
0.01 0.00 0.00 0.00 0.00 0.01 0.03 0.04 0.07 0.10 0.10 0.07 0.04 0.05 0.09 0.14 0.14 0.13 0.13 0.10 0.06 0.03 0.01 0.01 0.00 0.00 0.00 0.00 0.01 0.02 0.04 0.05 0.06 0.06 0.06 0.07 0.09 0.11 0.11 0.07 0.06 0.07 0.10 0.18
0.00 0.00 0.01 0.01 0.01 0.01 0.04 0.06 0.08 0.11 0.09 0.06 0.05 0.05 0.07 0.09 0.09 0.08 0.07 0.05 0.02 0.01 0.01 0.01 0.00 0.00 0.00 0.01 0.01 0.02 0.04 0.06 0.08 0.08 0.09 0.11 0.13 0.14 0.16 0.16 0.11 0.06 0.04 0.08
0.00 0.00 0.02 0.01 0.01 0.02 0.04 0.05 0.06 0.07 0.06 0.05 0.04 0.05 0.06 0.07 0.08 0.07 0.05 0.02 0.01 0.01 0.01 0.01 0.00 0.01 0.00 0.01 0.02 0.03 0.04 0.06 0.09 0.10 0.11 0.12 0.13 0.14 0.14 0.14 0.14 0.10 0.07 0.07
0.01 0.01 0.01 0.01 0.01 0.03 0.04 0.04 0.06 0.07 0.06 0.05 0.05 0.05 0.05 0.04 0.04 0.03 0.01 0.01 0.01 0.01 0.01 0.01 0.01 0.01 0.01 0.02 0.03 0.05 0.05 0.08 0.12 0.12 0.13 0.13 0.13 0.15 0.17 0.18 0.17 0.15 0.14 0.14
0.02 0.02 0.02 0.02 0.02 0.03 0.05 0.07 0.07 0.07 0.05 0.03 0.03 0.03 0.02 0.01 0.01 0.01 0.00 0.00 0.00 0.00 0.00 0.00 0.02 0.02 0.01 0.02 0.05 0.07 0.07 0.08 0.11 0.13 0.13 0.14 0.17 0.20 0.22 0.24 0.24 0.21 0.15 0.15
0.02 0.04 0.05 0.07 0.07 0.07 0.07 0.06 0.05 0.03 0.02 0.02 0.01 0.01 0.01 0.01 0.01 0.01 0.00 0.00 0.00 0.00 0.00 0.00 0.03 0.03 0.02 0.03 0.07 0.08 0.11 0.13 0.14 0.15 0.16 0.17 0.21 0.23 0.25 0.26 0.25 0.22 0.16 0.13
0.03 0.04 0.05 0.07 0.07 0.07 0.06 0.04 0.02 0.01 0.01 0.01 0.01 0.01 0.01 0.01 0.01 0.01 0.00 0.00 0.01 0.01 0.00 0.01 0.04 0.03 0.03 0.04 0.11 0.13 0.16 0.18 0.17 0.15 0.16 0.19 0.20 0.19 0.21 0.24 0.24 0.22 0.20 0.18
0.03 0.04 0.05 0.05 0.06 0.05 0.04 0.02 0.01 0.01 0.01 0.01 0.01 0.01 0.01 0.01 0.00 0.01 0.01 0.01 0.01 0.02 0.02 0.03 0.03 0.04 0.06 0.10 0.18 0.20 0.20 0.21 0.21 0.19 0.18 0.19 0.21 0.22 0.22 0.22 0.24 0.24 0.23 0.21
0.03 0.04 0.05 0.06 0.05 0.03 0.02 0.01 0.01 0.01 0.01 0.01 0.01 0.01 0.01 0.01 0.01 0.01 0.01 0.02 0.02 0.03 0.03 0.04 0.06 0.13 0.17 0.20 0.22 0.20 0.20 0.21 0.22 0.23 0.23 0.24 0.25 0.24 0.22 0.23 0.25 0.26 0.25 0.22
0.04 0.05 0.06 0.06 0.04 0.03 0.02 0.01 0.01 0.01 0.01 0.01 0.01 0.02 0.02 0.02 0.02 0.02 0.03 0.03 0.04 0.07 0.06 0.05 0.12 0.25 0.24 0.22 0.18 0.18 0.18 0.19 0.20 0.22 0.25 0.28 0.31 0.32 0.28 0.28 0.30 0.28 0.26 0.25
0.05 0.06 0.07 0.06 0.04 0.03 0.02 0.02 0.02 0.02 0.02 0.03 0.03 0.03 0.04 0.04 0.04 0.06 0.07 0.05 0.06 0.09 0.08 0.07 0.16 0.22 0.21 0.16 0.14 0.14 0.15 0.18 0.21 0.25 0.28 0.30 0.33 0.36 0.37 0.36 0.34 0.34 0.33 0.32
0.08 0.08 0.08 0.06 0.03 0.02 0.02 0.03 0.03 0.03 0.03 0.03 0.04 0.04 0.05 0.06 0.06 0.05 0.06 0.06 0.08 0.09 0.07 0.08 0.14 0.17 0.16 0.13 0.13 0.14 0.17 0.22 0.28 0.31 0.31 0.32 0.33 0.36 0.40 0.41 0.41 0.37 0.35 0.34
0.11 0.10 0.08 0.05 0.03 0.03 0.04 0.04 0.04 0.04 0.04 0.04 0.04 0.04 0.05 0.06 0.08 0.07 0.06 0.07 0.07 0.09 0.08 0.08 0.12 0.13 0.12 0.12 0.15 0.18 0.22 0.27 0.36 0.41 0.39 0.37 0.35 0.37 0.39 0.41 0.44 0.43 0.40 0.38
0.14 0.12 0.09 0.06 0.06 0.06 0.06 0.06 0.07 0.07 0.06 0.06 0.06 0.06 0.06 0.06 0.07 0.07 0.07 0.07 0.07 0.09 0.08 0.08 0.10 0.12 0.13 0.15 0.18 0.22 0.27 0.30 0.33 0.34 0.34 0.35 0.36 0.37 0.40 0.43 0.44 0.45 0.44 0.41
0.15 0.12 0.09 0.07 0.07 0.07 0.07 0.07 0.08 0.09 0.08 0.09 0.09 0.07 0.06 0.06 0.07 0.07 0.07 0.08 0.08 0.08 0.09 0.10 0.12 0.14 0.16 0.18 0.22 0.25 0.28 0.31 0.35 0.38 0.39 0.39 0.40 0.42 0.43 0.47 0.48 0.47 0.46 0.44

GEFSNGP_prec_meanprecacc_156.txt.gz
Total_Precipitation_Accumulation
0.07 0.04 0.04 0.05 0.04 0.02 0.04 0.04 0.03 0.02 0.01 0.02 0.01 0.00 0.00 0.00 0.00 0.00 0.00 0.00 0.01 0.01 0.01 0.02 0.02 0.03 0.06 0.09 0.12 0.16 0.20 0.23 0.23 0.22 0.22 0.22 0.22 0.22 0.23 0.25 0.27 0.26 0.25 0.27
0.07 0.04 0.04 0.04 0.03 0.02 0.01 0.01 0.01 0.01 0.01 0.01 0.00 0.00 0.00 0.00 0.00 0.01 0.01 0.01 0.01 0.02 0.03 0.04 0.06 0.09 0.14 0.20 0.23 0.25 0.27 0.27 0.25 0.22 0.21 0.21 0.22 0.23 0.23 0.23 0.22 0.19 0.17 0.22
0.11 0.05 0.08 0.09 0.03 0.02 0.01 0.01 0.00 0.00 0.00 0.00 0.00 0.00 0.00 0.00 0.01 0.02 0.02 0.03 0.04 0.05 0.07 0.09 0.13 0.18 0.22 0.24 0.24 0.26 0.28 0.28 0.26 0.24 0.23 0.22 0.20 0.19 0.18 0.17 0.14 0.11 0.09 0.12
0.16 0.12 0.17 0.07 0.02 0.01 0.01 0.01 0.01 0.00 0.00 0.00 0.00 0.00 0.00 0.01 0.02 0.04 0.05 0.07 0.09 0.11 0.12 0.15 0.20 0.24 0.27 0.26 0.26 0.26 0.25 0.23 0.19 0.16 0.15 0.14 0.14 0.13 0.11 0.10 0.09 0.07 0.05 0.06
0.20 0.18 0.12 0.02 0.01 0.01 0.01 0.01 0.01 0.01 0.01 0.00 0.00 0.01 0.01 0.04 0.04 0.05 0.07 0.07 0.08 0.08 0.09 0.13 0.19 0.22 0.23 0.21 0.20 0.17 0.15 0.12 0.09 0.07 0.07 0.08 0.09 0.07 0.06 0.05 0.04 0.04 0.03 0.04
0.21 0.17 0.08 0.02 0.00 0.00 0.01 0.02 0.01 0.01 0.01 0.02 0.06 0.17 0.09 0.09 0.06 0.05 0.04 0.04 0.04 0.04 0.04 0.07 0.10 0.12 0.12 0.12 0.10 0.09 0.07 0.05 0.03 0.02 0.03 0.04 0.04 0.03 0.03 0.03 0.03 0.03 0.03 0.03
0.18 0.13 0.05 0.01 0.00 0.00 0.02 0.03 0.02 0.01 0.02 0.07 0.15 0.21 0.12 0.08 0.06 0.04 0.03 0.03 0.02 0.02 0.04 0.07 0.10 0.11 0.10 0.08 0.05 0.03 0.02 0.01 0.01 0.00 0.01 0.01 0.02 0.02 0.03 0.03 0.03 0.03 0.03 0.03
0.14 0.12 0.05 0.01 0.01 0.01 0.01 0.01 0.02 0.03 0.06 0.11 0.09 0.04 0.03 0.04 0.05 0.03 0.02 0.02 0.02 0.03 0.05 0.10 0.12 0.10 0.06 0.04 0.01 0.00 0.00 0.00 0.00 0.00 0.01 0.01 0.02 0.02 0.03 0.03 0.04 0.04 0.05 0.04
0.09 0.06 0.02 0.02 0.02 0.02 0.01 0.02 0.07 0.15 0.15 0.14 0.13 0.08 0.07 0.05 0.04 0.02 0.02 0.02 0.04 0.05 0.08 0.11 0.09 0.05 0.02 0.01 0.00 0.00 0.00 0.00 0.01 0.01 0.01 0.02 0.02 0.03 0.04 0.04 0.07 0.09 0.09 0.08
0.06 0.03 0.01 0.01 0.01 0.01 0.01 0.05 0.10 0.13 0.14 0.15 0.16 0.12 0.08 0.05 0.03 0.03 0.04 0.05 0.06 0.07 0.09 0.10 0.06 0.02 0.00 0.00 0.00 0.00 0.01 0.01 0.01 0.01 0.02 0.02 0.03 0.04 0.05 0.08 0.19 0.26 0.22 0.18
0.03 0.02 0.01 0.01 0.01 0.01 0.03 0.04 0.03 0.03 0.05 0.12 0.16 0.12 0.07 0.05 0.05 0.06 0.07 0.07 0.08 0.09 0.09 0.07 0.03 0.01 0.00 0.00 0.00 0.01 0.01 0.02 0.02 0.02 0.03 0.03 0.03 0.04 0.07 0.09 0.26 0.45 0.41 0.39
0.02 0.01 0.01 0.01 0.01 0.02 0.06 0.04 0.05 0.07 0.08 0.07 0.09 0.08 0.06 0.08 0.09 0.09 0.10 0.11 0.11 0.09 0.05 0.02 0.01 0.00 0.00 0.00 0.01 0.02 0.03 0.03 0.04 0.04 0.04 0.04 0.05 0.05 0.05 0.08 0.14 0.18 0.23 0.34
0.01 0.01 0.01 0.01 0.01 0.01 0.03 0.05 0.08 0.11 0.10 0.07 0.05 0.05 0.09 0.14 0.14 0.13 0.13 0.10 0.07 0.03 0.01 0.01 0.00 0.00 0.00 0.00 0.01 0.02 0.04 0.05 0.06 0.06 0.06 0.07 0.09 0.11 0.11 0.07 0.06 0.07 0.10 0.18
0.01 0.01 0.02 0.01 0.01 0.01 0.04 0.06 0.09 0.11 0.09 0.06 0.05 0.05 0.07 0.09 0.09 0.08 0.07 0.05 0.02 0.01 0.01 0.01 0.01 0.00 0.00 0.01 0.01 0.02 0.04 0.06 0.08 0.08 0.09 0.11 0.13 0.14 0.16 0.16 0.11 0.06 0.04 0.09
0.01 0.01 0.02 0.02 0.01 0.03 0.05 0.06 0.07 0.08 0.07 0.05 0.04 0.05 0.07 0.07 0.08 0.07 0.05 0.02 0.01 0.01 0.01 0.01 0.01 0.01 0.01 0.01 0.02 0.03 0.04 0.06 0.09 0.10 0.11 0.12 0.13 0.14 0.14 0.14 0.14 0.10 0.07 0.07
0.01 0.01 0.01 0.01 0.02 0.05 0.05 0.06 0.07 0.07 0.06 0.06 0.05 0.05 0.05 0.05 0.04 0.03 0.01 0.01 0.01 0.01 0.01 0.01 0.01 0.01 0.01 0.02 0.03 0.05 0.05 0.08 0.12 0.12 0.13 0.13 0.13 0.16 0.17 0.18 0.17 0.16 0.14 0.14
0.03 0.03 0.03 0.03 0.04 0.06 0.08 0.08 0.08 0.07 0.05 0.04 0.04 0.03 0.03 0.02 0.01 0.01 0.01 0.01 0.01 0.01 0.01 0.01 0.02 0.02 0.02 0.02 0.06 0.07 0.07 0.08 0.12 0.13 0.13 0.14 0.17 0.20 0.22 0.25 0.25 0.21 0.16 0.15
0.04 0.06 0.07 0.09 0.09 0.09 0.09 0.07 0.05 0.04 0.03 0.02 0.02 0.01 0.01 0.01 0.01 0.01 0.01 0.01 0.01 0.01 0.01 0.01 0.03 0.03 0.02 0.03 0.07 0.09 0.11 0.13 0.14 0.16 0.16 0.17 0.21 0.23 0.25 0.27 0.25 0.23 0.17 0.13
0.05 0.06 0.07 0.08 0.09 0.09 0.08 0.05 0.03 0.02 0.02 0.02 0.02 0.02 0.02 0.02 0.02 0.02 0.01 0.01 0.01 0.02 0.01 0.02 0.04 0.03 0.03 0.05 0.11 0.13 0.16 0.18 0.17 0.16 0.16 0.19 0.20 0.19 0.22 0.25 0.24 0.22 0.20 0.19
0.05 0.05 0.06 0.07 0.08 0.07 0.06 0.03 0.02 0.02 0.02 0.02 0.02 0.02 0.02 0.02 0.02 0.02 0.01 0.01 0.02 0.03 0.02 0.04 0.04 0.05 0.07 0.10 0.18 0.20 0.21 0.21 0.21 0.20 0.19 0.20 0.22 0.23 0.22 0.23 0.24 0.25 0.23 0.21
0.05 0.05 0.06 0.08 0.07 0.05 0.03 0.02 0.01 0.02 0.02 0.02 0.01 0.01 0.01 0.01 0.02 0.02 0.02 0.03 0.03 0.04 0.04 0.05 0.07 0.14 0.18 0.21 0.23 0.21 0.21 0.22 0.23 0.24 0.25 0.26 0.26 0.25 0.23 0.24 0.26 0.26 0.25 0.23
0.05 0.06 0.07 0.07 0.06 0.04 0.03 0.02 0.02 0.02 0.02 0.02 0.02 0.02 0.02 0.03 0.03 0.04 0.04 0.05 0.06 0.09 0.07 0.07 0.13 0.26 0.26 0.24 0.20 0.19 0.19 0.20 0.22 0.24 0.27 0.29 0.32 0.32 0.29 0.28 0.31 0.29 0.26 0.26
0.07 0.08 0.08 0.08 0.05 0.04 0.03 0.03 0.03 0.03 0.03 0.03 0.04 0.04 0.05 0.05 0.06 0.07 0.08 0.07 0.07 0.10 0.09 0.09 0.17 0.24 0.23 0.18 0.16 0.16 0.16 0.19 0.22 0.26 0.29 0.31 0.34 0.36 0.38 0.36 0.34 0.34 0.34 0.32
0.10 0.10 0.10 0.07 0.05 0.04 0.05 0.05 0.05 0.05 0.05 0.05 0.05 0.05 0.06 0.07 0.07 0.07 0.08 0.08 0.09 0.11 0.08 0.09 0.16 0.18 0.17 0.14 0.14 0.15 0.18 0.22 0.28 0.31 0.31 0.32 0.33 0.36 0.40 0.42 0.41 0.37 0.35 0.35
0.14 0.13 0.10 0.07 0.06 0.06 0.07 0.07 0.07 0.07 0.06 0.06 0.06 0.06 0.06 0.07 0.09 0.09 0.08 0.08 0.09 0.10 0.09 0.10 0.13 0.14 0.13 0.13 0.15 0.19 0.22 0.28 0.36 0.41 0.40 0.38 0.35 0.37 0.39 0.41 0.44 0.43 0.40 0.38
0.19 0.16 0.13 0.10 0.09 0.09 0.09 0.09 0.10 0.10 0.08 0.08 0.08 0.07 0.07 0.08 0.08 0.09 0.09 0.09 0.09 0.10 0.10 0.10 0.11 0.13 0.14 0.16 0.19 0.22 0.27 0.30 0.33 0.34 0.34 0.36 0.36 0.38 0.40 0.43 0.44 0.45 0.44 0.41
0.19 0.16 0.12 0.10 0.10 0.10 0.10 0.10 0.11 0.12 0.12 0.11 0.12 0.10 0.08 0.08 0.08 0.09 0.09 0.10 0.10 0.10 0.10 0.11 0.13 0.15 0.17 0.19 0.22 0.25 0.28 0.31 0.35 0.39 0.39 0.40 0.40 0.42 0.43 0.47 0.48 0.48 0.47 0.44

GEFSNGP_prec_meanprecacc_162.txt.gz
Total_Precipitation_Accumulation
0.11 0.06 0.06 0.07 0.06 0.05 0.06 0.05 0.04 0.02 0.01 0.02 0.01 0.00 0.00 0.00 0.00 0.00 0.00 0.00 0.01 0.01 0.01 0.02 0.02 0.03 0.06 0.09 0.12 0.16 0.20 0.23 0.23 0.22 0.22 0.22 0.22 0.22 0.24 0.25 0.27 0.26 0.25 0.27
0.12 0.07 0.06 0.06 0.04 0.04 0.03 0.02 0.01 0.01 0.01 0.01 0.00 0.00 0.00 0.00 0.01 0.01 0.01 0.01 0.01 0.02 0.03 0.04 0.06 0.09 0.14 0.20 0.23 0.25 0.27 0.27 0.25 0.22 0.21 0.21 0.22 0.23 0.23 0.23 0.22 0.19 0.18 0.22
0.17 0.09 0.13 0.13 0.06 0.03 0.02 0.01 0.01 0.01 0.01 0.00 0.00 0.00 0.00 0.00 0.02 0.02 0.03 0.03 0.04 0.05 0.07 0.09 0.13 0.18 0.22 0.24 0.24 0.26 0.28 0.28 0.26 0.24 0.23 0.22 0.20 0.19 0.18 0.17 0.14 0.11 0.09 0.12
0.25 0.19 0.26 0.11 0.02 0.02 0.02 0.02 0.01 0.01 0.01 0.00 0.00 0.00 0.00 0.01 0.03 0.04 0.05 0.08 0.09 0.11 0.12 0.15 0.20 0.24 0.27 0.26 0.26 0.26 0.25 0.23 0.19 0.16 0.15 0.14 0.14 0.13 0.11 0.10 0.09 0.07 0.06 0.06
0.30 0.27 0.18 0.04 0.01 0.02 0.03 0.03 0.02 0.01 0.01 0.00 0.00 0.01 0.02 0.04 0.04 0.06 0.07 0.08 0.08 0.08 0.09 0.13 0.19 0.22 0.23 0.21 0.20 0.17 0.15 0.12 0.09 0.07 0.07 0.08 0.09 0.08 0.06 0.05 0.04 0.04 0.04 0.04
0.31 0.27 0.15 0.04 0.02 0.01 0.03 0.05 0.03 0.01 0.01 0.02 0.06 0.17 0.09 0.09 0.07 0.05 0.04 0.04 0.04 0.04 0.04 0.07 0.10 0.12 0.12 0.12 0.10 0.09 0.07 0.05 0.03 0.02 0.03 0.04 0.04 0.03 0.03 0.03 0.03 0.03 0.03 0.03
0.29 0.22 0.10 0.04 0.02 0.02 0.06 0.07 0.04 0.02 0.02 0.07 0.15 0.21 0.12 0.08 0.06 0.04 0.03 0.03 0.02 0.02 0.04 0.07 0.10 0.11 0.10 0.08 0.05 0.03 0.02 0.01 0.01 0.01 0.01 0.01 0.02 0.02 0.03 0.03 0.03 0.03 0.03 0.03
0.23 0.22 0.09 0.03 0.02 0.04 0.05 0.04 0.03 0.04 0.06 0.12 0.10 0.04 0.03 0.04 0.05 0.03 0.02 0.02 0.03 0.03 0.05 0.10 0.12 0.10 0.06 0.04 0.02 0.01 0.00 0.00 0.00 0.01 0.01 0.01 0.02 0.02 0.03 0.03 0.04 0.04 0.05 0.04
0.16 0.11 0.03 0.02 0.03 0.03 0.04 0.05 0.08 0.16 0.16 0.15 0.13 0.08 0.07 0.05 0.04 0.02 0.02 0.02 0.04 0.05 0.09 0.11 0.09 0.05 0.02 0.01 0.00 0.00 0.00 0.01 0.01 0.01 0.01 0.02 0.02 0.04 0.04 0.04 0.07 0.10 0.09 0.08
0.11 0.06 0.03 0.02 0.02 0.01 0.03 0.07 0.11 0.14 0.15 0.15 0.16 0.12 0.08 0.05 0.03 0.03 0.04 0.05 0.06 0.07 0.09 0.10 0.06 0.02 0.01 0.00 0.00 0.01 0.01 0.01 0.01 0.01 0.02 0.02 0.03 0.04 0.06 0.08 0.19 0.27 0.23 0.19
0.06 0.03 0.03 0.03 0.02 0.02 0.04 0.05 0.04 0.03 0.06 0.12 0.17 0.13 0.07 0.05 0.05 0.06 0.07 0.07 0.08 0.09 0.09 0.07 0.03 0.01 0.00 0.00 0.01 0.01 0.01 0.02 0.02 0.02 0.03 0.04 0.03 0.04 0.07 0.10 0.26 0.45 0.41 0.39
0.05 0.03 0.03 0.03 0.03 0.04 0.07 0.06 0.06 0.08 0.08 0.08 0.10 0.09 0.07 0.09 0.10 0.10 0.10 0.12 0.12 0.09 0.05 0.02 0.01 0.01 0.01 0.01 0.01 0.02 0.03 0.03 0.04 0.04 0.05 0.05 0.06 0.06 0.06 0.08 0.14 0.19 0.23 0.34
0.02 0.02 0.02 0.03 0.02 0.02 0.05 0.07 0.09 0.12 0.11 0.08 0.05 0.06 0.10 0.15 0.15 0.14 0.13 0.11 0.07 0.04 0.02 0.01 0.01 0.00 0.00 0.01 0.01 0.02 0.04 0.06 0.07 0.07 0.07 0.08 0.10 0.12 0.11 0.07 0.06 0.07 0.10 0.18
0.02 0.02 0.04 0.02 0.02 0.02 0.05 0.07 0.10 0.12 0.10 0.07 0.06 0.06 0.07 0.09 0.10 0.09 0.08 0.06 0.03 0.02 0.01 0.01 0.01 0.01 0.01 0.01 0.02 0.03 0.05 0.07 0.09 0.09 0.10 0.12 0.14 0.15 0.16 0.16 0.12 0.07 0.05 0.09
0.02 0.02 0.04 0.02 0.02 0.03 0.06 0.07 0.08 0.09 0.08 0.06 0.06 0.07 0.07 0.08 0.08 0.08 0.05 0.03 0.02 0.01 0.01 0.01 0.01 0.01 0.01 0.01 0.03 0.04 0.05 0.07 0.10 0.11 0.12 0.13 0.14 0.15 0.15 0.15 0.15 0.11 0.08 0.08
0.03 0.03 0.02 0.02 0.03 0.05 0.06 0.06 0.08 0.08 0.08 0.07 0.07 0.07 0.06 0.05 0.05 0.03 0.02 0.01 0.01 0.02 0.02 0.02 0.02 0.02 0.02 0.02 0.04 0.05 0.06 0.10 0.13 0.13 0.13 0.13 0.14 0.16 0.18 0.19 0.18 0.16 0.15 0.15
0.05 0.05 0.04 0.04 0.05 0.06 0.08 0.09 0.09 0.09 0.07 0.05 0.05 0.04 0.03 0.03 0.02 0.01 0.01 0.01 0.01 0.01 0.02 0.02 0.03 0.03 0.03 0.04 0.07 0.08 0.09 0.10 0.13 0.14 0.14 0.15 0.18 0.22 0.24 0.26 0.26 0.22 0.17 0.16
0.06 0.08 0.09 0.10 0.11 0.10 0.10 0.09 0.07 0.05 0.04 0.03 0.03 0.02 0.02 0.02 0.02 0.02 0.02 0.02 0.02 0.02 0.03 0.03 0.05 0.05 0.04 0.05 0.09 0.10 0.12 0.14 0.15 0.17 0.17 0.18 0.23 0.25 0.27 0.28 0.27 0.24 0.17 0.14
0.06 0.07 0.08 0.10 0.11 0.11 0.10 0.07 0.05 0.04 0.04 0.03 0.03 0.04 0.04 0.04 0.04 0.04 0.03 0.03 0.03 0.04 0.04 0.04 0.06 0.05 0.05 0.07 0.13 0.14 0.18 0.20 0.19 0.17 0.17 0.21 0.22 0.21 0.23 0.26 0.26 0.23 0.21 0.20
0.07 0.07 0.08 0.09 0.09 0.08 0.07 0.05 0.04 0.03 0.04 0.04 0.04 0.04 0.04 0.04 0.04 0.04 0.04 0.04 0.04 0.06 0.05 0.06 0.06 0.06 0.08 0.12 0.20 0.22 0.23 0.23 0.23 0.22 0.21 0.22 0.24 0.25 0.24 0.25 0.26 0.26 0.24 0.22
0.07 0.07 0.08 0.09 0.08 0.06 0.04 0.03 0.03 0.03 0.03 0.03 0.03 0.03 0.04 0.04 0.04 0.04 0.04 0.05 0.05 0.06 0.05 0.06 0.08 0.16 0.20 0.23 0.25 0.23 0.23 0.24 0.25 0.26 0.27 0.28 0.28 0.26 0.25 0.25 0.27 0.27 0.26 0.24
0.07 0.08 0.10 0.09 0.07 0.06 0.04 0.04 0.04 0.04 0.03 0.03 0.03 0.04 0.04 0.05 0.05 0.05 0.06 0.07 0.08 0.10 0.09 0.08 0.15 0.28 0.28 0.26 0.22 0.21 0.21 0.22 0.24 0.25 0.28 0.31 0.33 0.33 0.30 0.30 0.32 0.30 0.28 0.27
0.09 0.10 0.11 0.10 0.07 0.06 0.05 0.04 0.04 0.04 0.04 0.05 0.05 0.06 0.07 0.07 0.08 0.10 0.11 0.10 0.10 0.12 0.11 0.11 0.20 0.26 0.25 0.21 0.18 0.18 0.18 0.21 0.24 0.27 0.30 0.33 0.35 0.38 0.40 0.38 0.36 0.35 0.35 0.33
0.13 0.13 0.12 0.10 0.07 0.06 0.07 0.07 0.06 0.06 0.06 0.06 0.06 0.07 0.08 0.09 0.10 0.10 0.11 0.12 0.13 0.14 0.11 0.12 0.18 0.20 0.19 0.16 0.15 0.17 0.20 0.25 0.31 0.33 0.33 0.34 0.35 0.38 0.41 0.43 0.42 0.38 0.36 0.35
0.17 0.15 0.13 0.10 0.08 0.09 0.10 0.09 0.09 0.09 0.08 0.07 0.08 0.08 0.09 0.10 0.13 0.13 0.12 0.12 0.12 0.13 0.12 0.12 0.15 0.16 0.15 0.15 0.17 0.21 0.24 0.30 0.39 0.44 0.42 0.39 0.37 0.38 0.40 0.42 0.45 0.44 0.41 0.39
0.21 0.19 0.15 0.12 0.11 0.11 0.12 0.12 0.12 0.12 0.11 0.10 0.10 0.10 0.10 0.11 0.12 0.13 0.13 0.13 0.13 0.13 0.13 0.12 0.13 0.15 0.17 0.18 0.21 0.25 0.29 0.33 0.36 0.37 0.36 0.37 0.37 0.39 0.41 0.44 0.45 0.45 0.44 0.41
0.21 0.18 0.14 0.12 0.12 0.12 0.12 0.13 0.14 0.15 0.15 0.14 0.15 0.13 0.12 0.11 0.12 0.12 0.13 0.13 0.13 0.13 0.14 0.15 0.16 0.18 0.20 0.22 0.25 0.28 0.31 0.33 0.37 0.41 0.40 0.41 0.41 0.43 0.44 0.47 0.49 0.48 0.47 0.45

GEFSNGP_prec_meanprecacc_168.txt.gz
Total_Precipitation_Accumulation
0.14 0.07 0.08 0.10 0.09 0.10 0.11 0.10 0.07 0.03 0.02 0.02 0.02 0.00 0.00 0.00 0.00 0.00 0.00 0.01 0.01 0.02 0.02 0.02 0.02 0.03 0.06 0.09 0.13 0.16 0.20 0.23 0.24 0.22 0.22 0.22 0.22 0.23 0.24 0.25 0.27 0.26 0.25 0.27
0.15 0.09 0.08 0.08 0.06 0.05 0.06 0.05 0.04 0.02 0.02 0.01 0.00 0.00 0.00 0.00 0.01 0.01 0.01 0.01 0.02 0.03 0.04 0.04 0.06 0.09 0.14 0.20 0.23 0.25 0.27 0.27 0.25 0.23 0.22 0.22 0.22 0.23 0.24 0.24 0.22 0.19 0.18 0.22
0.23 0.12 0.17 0.18 0.07 0.04 0.03 0.02 0.02 0.02 0.02 0.00 0.00 0.00 0.00 0.00 0.02 0.02 0.03 0.03 0.04 0.06 0.08 0.10 0.13 0.18 0.22 0.24 0.24 0.26 0.28 0.28 0.27 0.25 0.24 0.22 0.21 0.19 0.18 0.17 0.14 0.11 0.10 0.12
0.32 0.24 0.34 0.15 0.03 0.02 0.03 0.03 0.02 0.02 0.01 0.01 0.00 0.00 0.00 0.01 0.03 0.04 0.05 0.08 0.09 0.11 0.12 0.16 0.20 0.24 0.27 0.26 0.26 0.26 0.25 0.23 0.19 0.17 0.16 0.15 0.15 0.14 0.12 0.11 0.09 0.07 0.06 0.06
0.38 0.34 0.22 0.06 0.02 0.02 0.04 0.05 0.03 0.02 0.02 0.01 0.01 0.01 0.02 0.04 0.04 0.06 0.07 0.08 0.08 0.08 0.09 0.13 0.19 0.22 0.23 0.21 0.20 0.17 0.15 0.12 0.09 0.07 0.08 0.09 0.09 0.08 0.07 0.06 0.05 0.04 0.04 0.04
0.41 0.36 0.20 0.06 0.02 0.02 0.05 0.08 0.05 0.03 0.03 0.03 0.07 0.18 0.10 0.09 0.07 0.05 0.04 0.04 0.04 0.04 0.04 0.07 0.10 0.12 0.12 0.12 0.10 0.09 0.07 0.05 0.03 0.02 0.03 0.04 0.04 0.04 0.04 0.04 0.04 0.03 0.03 0.03
0.38 0.31 0.14 0.05 0.02 0.03 0.09 0.12 0.08 0.06 0.06 0.10 0.17 0.22 0.13 0.09 0.07 0.04 0.03 0.03 0.02 0.03 0.04 0.07 0.10 0.11 0.10 0.08 0.05 0.03 0.02 0.01 0.01 0.01 0.01 0.02 0.02 0.02 0.03 0.04 0.04 0.04 0.04 0.03
0.28 0.29 0.13 0.03 0.04 0.06 0.10 0.08 0.07 0.08 0.10 0.16 0.12 0.05 0.04 0.05 0.05 0.03 0.02 0.02 0.03 0.03 0.05 0.10 0.12 0.10 0.06 0.04 0.02 0.01 0.00 0.01 0.01 0.01 0.01 0.02 0.02 0.03 0.03 0.04 0.05 0.05 0.06 0.05
0.19 0.14 0.05 0.03 0.04 0.05 0.06 0.08 0.12 0.19 0.19 0.18 0.15 0.09 0.07 0.06 0.04 0.02 0.02 0.03 0.04 0.05 0.09 0.12 0.09 0.05 0.03 0.01 0.00 0.00 0.01 0.01 0.01 0.01 0.02 0.02 0.03 0.04 0.05 0.05 0.08 0.10 0.10 0.09
0.12 0.07 0.03 0.03 0.02 0.02 0.04 0.08 0.13 0.16 0.18 0.18 0.20 0.14 0.09 0.06 0.04 0.04 0.04 0.05 0.07 0.07 0.09 0.11 0.07 0.02 0.01 0.01 0.01 0.01 0.01 0.01 0.02 0.02 0.02 0.03 0.03 0.04 0.06 0.09 0.20 0.28 0.24 0.20
0.07 0.05 0.04 0.04 0.03 0.03 0.06 0.06 0.05 0.06 0.09 0.16 0.20 0.15 0.09 0.07 0.06 0.07 0.07 0.07 0.08 0.09 0.09 0.08 0.04 0.01 0.01 0.02 0.02 0.02 0.02 0.02 0.03 0.03 0.03 0.04 0.04 0.05 0.08 0.10 0.27 0.47 0.42 0.40
0.06 0.04 0.04 0.04 0.03 0.05 0.08 0.07 0.07 0.09 0.10 0.11 0.13 0.12 0.09 0.10 0.11 0.11 0.11 0.12 0.12 0.10 0.06 0.03 0.02 0.02 0.02 0.02 0.04 0.04 0.04 0.04 0.05 0.05 0.05 0.06 0.07 0.07 0.08 0.10 0.16 0.20 0.24 0.35
0.03 0.03 0.03 0.03 0.03 0.03 0.06 0.08 0.10 0.13 0.12 0.09 0.07 0.09 0.13 0.17 0.16 0.15 0.15 0.13 0.09 0.05 0.03 0.03 0.02 0.02 0.02 0.03 0.04 0.05 0.06 0.07 0.09 0.08 0.08 0.10 0.11 0.13 0.12 0.09 0.08 0.09 0.11 0.19
0.03 0.04 0.05 0.03 0.02 0.03 0.06 0.08 0.11 0.13 0.11 0.07 0.06 0.07 0.10 0.12 0.12 0.10 0.09 0.07 0.04 0.03 0.02 0.02 0.02 0.02 0.02 0.03 0.05 0.06 0.07 0.09 0.11 0.10 0.11 0.13 0.15 0.16 0.17 0.17 0.14 0.08 0.07 0.11
0.03 0.03 0.05 0.04 0.03 0.04 0.07 0.08 0.09 0.10 0.08 0.07 0.06 0.07 0.08 0.10 0.11 0.10 0.07 0.04 0.03 0.03 0.03 0.03 0.03 0.03 0.03 0.04 0.05 0.06 0.08 0.09 0.12 0.13 0.14 0.14 0.16 0.16 0.16 0.16 0.16 0.12 0.10 0.11
0.04 0.04 0.04 0.04 0.05 0.07 0.08 0.08 0.09 0.10 0.09 0.08 0.08 0.08 0.07 0.07 0.06 0.05 0.04 0.03 0.03 0.03 0.03 0.04 0.03 0.03 0.04 0.05 0.07 0.08 0.08 0.11 0.15 0.15 0.15 0.15 0.16 0.18 0.19 0.20 0.20 0.18 0.17 0.18
0.06 0.07 0.07 0.08 0.08 0.09 0.11 0.12 0.11 0.10 0.08 0.07 0.06 0.06 0.05 0.04 0.04 0.03 0.03 0.03 0.03 0.03 0.03 0.04 0.04 0.04 0.05 0.06 0.10 0.11 0.11 0.12 0.15 0.16 0.16 0.17 0.20 0.24 0.26 0.28 0.29 0.25 0.19 0.18
0.08 0.10 0.11 0.12 0.13 0.12 0.12 0.10 0.09 0.07 0.07 0.06 0.05 0.05 0.04 0.04 0.04 0.04 0.04 0.04 0.04 0.04 0.04 0.05 0.07 0.07 0.06 0.07 0.13 0.13 0.15 0.17 0.18 0.19 0.19 0.20 0.25 0.27 0.29 0.31 0.29 0.26 0.20 0.17
0.08 0.09 0.10 0.12 0.12 0.13 0.11 0.09 0.07 0.06 0.06 0.05 0.05 0.05 0.06 0.06 0.05 0.05 0.05 0.05 0.05 0.06 0.07 0.07 0.09 0.07 0.07 0.09 0.16 0.17 0.20 0.22 0.21 0.19 0.19 0.23 0.24 0.23 0.26 0.29 0.28 0.26 0.24 0.22
0.09 0.09 0.10 0.11 0.11 0.11 0.09 0.07 0.05 0.05 0.05 0.05 0.05 0.05 0.06 0.06 0.06 0.06 0.06 0.06 0.07 0.09 0.08 0.09 0.08 0.08 0.11 0.15 0.22 0.24 0.25 0.25 0.25 0.24 0.23 0.25 0.27 0.27 0.26 0.27 0.28 0.28 0.26 0.24
0.10 0.10 0.11 0.12 0.10 0.08 0.06 0.05 0.04 0.04 0.04 0.04 0.04 0.05 0.05 0.06 0.06 0.06 0.07 0.07 0.07 0.08 0.08 0.09 0.10 0.18 0.24 0.27 0.28 0.26 0.26 0.27 0.28 0.28 0.29 0.30 0.31 0.29 0.27 0.28 0.29 0.29 0.28 0.26
0.10 0.11 0.12 0.12 0.10 0.07 0.06 0.05 0.05 0.05 0.04 0.04 0.05 0.05 0.06 0.07 0.07 0.08 0.09 0.10 0.11 0.13 0.12 0.11 0.18 0.32 0.33 0.31 0.25 0.24 0.24 0.24 0.26 0.27 0.30 0.33 0.36 0.36 0.32 0.32 0.35 0.33 0.30 0.29
0.11 0.12 0.13 0.12 0.10 0.08 0.06 0.06 0.06 0.06 0.06 0.06 0.07 0.08 0.09 0.10 0.11 0.13 0.15 0.13 0.13 0.15 0.14 0.14 0.23 0.30 0.29 0.24 0.21 0.20 0.21 0.23 0.26 0.29 0.32 0.35 0.37 0.40 0.41 0.40 0.38 0.37 0.36 0.34
0.15 0.15 0.15 0.12 0.09 0.08 0.09 0.08 0.08 0.08 0.08 0.08 0.09 0.09 0.10 0.12 0.13 0.14 0.15 0.15 0.16 0.16 0.14 0.15 0.21 0.23 0.21 0.18 0.18 0.19 0.22 0.27 0.33 0.35 0.35 0.36 0.37 0.39 0.43 0.44 0.43 0.39 0.37 0.36
0.19 0.18 0.15 0.13 0.11 0.11 0.12 0.12 0.11 0.10 0.09 0.09 0.10 0.11 0.11 0.13 0.15 0.16 0.15 0.15 0.16 0.16 0.15 0.16 0.18 0.19 0.18 0.18 0.20 0.23 0.27 0.33 0.41 0.45 0.43 0.41 0.38 0.39 0.41 0.44 0.46 0.46 0.43 0.40
0.24 0.22 0.18 0.16 0.14 0.14 0.14 0.14 0.15 0.15 0.13 0.13 0.13 0.12 0.12 0.13 0.14 0.16 0.17 0.18 0.18 0.18 0.17 0.17 0.17 0.19 0.20 0.22 0.24 0.28 0.32 0.35 0.38 0.39 0.37 0.39 0.38 0.40 0.43 0.46 0.47 0.47 0.46 0.43
0.24 0.21 0.17 0.16 0.14 0.14 0.14 0.15 0.17 0.18 0.17 0.17 0.17 0.15 0.13 0.14 0.15 0.15 0.16 0.18 0.19 0.20 0.20 0.20 0.21 0.22 0.23 0.25 0.27 0.30 0.33 0.36 0.40 0.43 0.43 0.43 0.43 0.45 0.46 0.49 0.51 0.50 0.48 0.46

GEFSNGP_prec_meanprecacc_174.txt.gz
Total_Precipitation_Accumulation
0.18 0.11 0.10 0.13 0.12 0.12 0.15 0.15 0.12 0.06 0.04 0.03 0.02 0.01 0.01 0.01 0.01 0.00 0.00 0.01 0.02 0.02 0.02 0.02 0.03 0.04 0.07 0.10 0.13 0.16 0.21 0.24 0.25 0.24 0.23 0.23 0.23 0.23 0.24 0.26 0.27 0.26 0.25 0.27
0.19 0.12 0.12 0.12 0.09 0.08 0.08 0.07 0.06 0.04 0.04 0.03 0.02 0.01 0.00 0.00 0.01 0.01 0.01 0.01 0.02 0.03 0.04 0.05 0.06 0.10 0.15 0.21 0.23 0.25 0.28 0.28 0.26 0.24 0.23 0.23 0.24 0.24 0.24 0.24 0.22 0.19 0.18 0.22
0.28 0.14 0.22 0.23 0.10 0.06 0.06 0.05 0.03 0.04 0.03 0.02 0.01 0.01 0.01 0.01 0.02 0.03 0.03 0.03 0.04 0.06 0.08 0.10 0.14 0.19 0.23 0.25 0.25 0.26 0.28 0.29 0.27 0.25 0.25 0.23 0.22 0.20 0.19 0.18 0.14 0.12 0.10 0.13
0.39 0.29 0.39 0.18 0.04 0.03 0.04 0.05 0.04 0.03 0.02 0.02 0.01 0.01 0.01 0.01 0.03 0.04 0.06 0.08 0.09 0.11 0.12 0.16 0.21 0.25 0.27 0.27 0.27 0.26 0.25 0.23 0.20 0.17 0.16 0.16 0.16 0.15 0.13 0.12 0.10 0.08 0.07 0.07
0.46 0.40 0.25 0.07 0.02 0.02 0.05 0.07 0.05 0.04 0.03 0.02 0.01 0.02 0.02 0.04 0.04 0.06 0.07 0.08 0.08 0.08 0.09 0.13 0.19 0.23 0.23 0.22 0.20 0.18 0.15 0.12 0.09 0.07 0.08 0.09 0.10 0.10 0.08 0.07 0.06 0.05 0.04 0.05
0.49 0.42 0.23 0.07 0.02 0.02 0.06 0.09 0.06 0.05 0.04 0.04 0.07 0.19 0.10 0.10 0.07 0.05 0.04 0.04 0.04 0.04 0.04 0.07 0.10 0.12 0.13 0.13 0.11 0.09 0.07 0.05 0.03 0.02 0.03 0.04 0.04 0.04 0.05 0.05 0.05 0.05 0.04 0.04
0.43 0.36 0.16 0.05 0.03 0.04 0.11 0.13 0.09 0.08 0.07 0.11 0.18 0.23 0.14 0.09 0.07 0.05 0.03 0.03 0.02 0.03 0.04 0.07 0.10 0.11 0.10 0.08 0.06 0.04 0.02 0.02 0.01 0.01 0.01 0.02 0.02 0.03 0.04 0.05 0.06 0.06 0.05 0.04
0.31 0.34 0.15 0.04 0.04 0.07 0.11 0.09 0.08 0.09 0.12 0.17 0.13 0.06 0.04 0.05 0.06 0.04 0.02 0.02 0.03 0.04 0.06 0.10 0.12 0.10 0.07 0.04 0.02 0.01 0.01 0.01 0.01 0.01 0.02 0.02 0.03 0.04 0.04 0.05 0.06 0.07 0.07 0.06
0.21 0.16 0.05 0.04 0.05 0.05 0.07 0.09 0.12 0.20 0.20 0.19 0.16 0.10 0.07 0.06 0.04 0.03 0.02 0.03 0.04 0.06 0.09 0.12 0.10 0.06 0.04 0.02 0.01 0.01 0.02 0.02 0.02 0.02 0.03 0.03 0.04 0.05 0.05 0.06 0.09 0.12 0.12 0.11
0.15 0.08 0.04 0.04 0.03 0.03 0.04 0.09 0.14 0.17 0.19 0.20 0.22 0.16 0.10 0.06 0.04 0.04 0.04 0.06 0.07 0.08 0.10 0.11 0.08 0.03 0.02 0.02 0.01 0.02 0.02 0.03 0.03 0.03 0.04 0.04 0.05 0.05 0.07 0.09 0.20 0.29 0.25 0.21
0.09 0.06 0.05 0.05 0.04 0.04 0.06 0.06 0.05 0.06 0.09 0.17 0.22 0.17 0.10 0.07 0.07 0.07 0.08 0.08 0.09 0.10 0.10 0.08 0.04 0.02 0.02 0.02 0.03 0.03 0.04 0.04 0.04 0.04 0.05 0.06 0.06 0.07 0.10 0.12 0.28 0.48 0.44 0.42
0.07 0.05 0.05 0.05 0.04 0.06 0.09 0.07 0.07 0.09 0.11 0.11 0.15 0.14 0.11 0.11 0.12 0.12 0.12 0.13 0.13 0.10 0.06 0.04 0.03 0.03 0.03 0.03 0.05 0.06 0.06 0.06 0.07 0.07 0.07 0.08 0.09 0.10 0.10 0.12 0.18 0.22 0.26 0.36
0.04 0.03 0.04 0.04 0.03 0.04 0.07 0.09 0.11 0.14 0.13 0.10 0.09 0.11 0.16 0.20 0.18 0.16 0.16 0.14 0.10 0.06 0.04 0.03 0.03 0.03 0.03 0.05 0.06 0.07 0.08 0.09 0.11 0.10 0.10 0.12 0.14 0.16 0.15 0.11 0.10 0.10 0.13 0.21
0.03 0.04 0.05 0.04 0.03 0.03 0.06 0.08 0.11 0.14 0.12 0.09 0.08 0.09 0.12 0.15 0.15 0.12 0.11 0.08 0.05 0.04 0.03 0.03 0.03 0.03 0.03 0.05 0.07 0.09 0.10 0.11 0.13 0.13 0.14 0.15 0.17 0.18 0.19 0.19 0.15 0.10 0.09 0.13
0.03 0.04 0.06 0.04 0.03 0.05 0.07 0.09 0.10 0.11 0.11 0.10 0.09 0.09 0.11 0.13 0.13 0.12 0.09 0.05 0.04 0.04 0.04 0.04 0.04 0.04 0.04 0.06 0.07 0.09 0.10 0.12 0.15 0.17 0.18 0.18 0.19 0.19 0.19 0.18 0.17 0.15 0.13 0.14
0.04 0.05 0.05 0.05 0.06 0.08 0.08 0.09 0.10 0.11 0.11 0.10 0.11 0.10 0.10 0.09 0.09 0.08 0.06 0.05 0.05 0.05 0.05 0.05 0.05 0.05 0.05 0.07 0.09 0.10 0.10 0.14 0.18 0.19 0.20 0.20 0.21 0.22 0.23 0.23 0.23 0.21 0.20 0.20
0.07 0.07 0.08 0.08 0.09 0.10 0.12 0.12 0.12 0.11 0.09 0.08 0.08 0.08 0.07 0.06 0.06 0.05 0.06 0.05 0.05 0.05 0.05 0.06 0.06 0.07 0.07 0.08 0.13 0.13 0.13 0.15 0.18 0.20 0.21 0.22 0.24 0.28 0.29 0.31 0.31 0.27 0.21 0.21
0.08 0.10 0.11 0.13 0.13 0.13 0.12 0.11 0.09 0.08 0.07 0.07 0.06 0.06 0.06 0.06 0.06 0.06 0.06 0.05 0.05 0.06 0.06 0.08 0.09 0.09 0.08 0.10 0.16 0.17 0.18 0.20 0.21 0.22 0.22 0.24 0.29 0.30 0.32 0.34 0.32 0.29 0.23 0.21
0.09 0.10 0.11 0.12 0.13 0.13 0.12 0.10 0.08 0.07 0.07 0.07 0.07 0.07 0.07 0.07 0.07 0.07 0.06 0.06 0.06 0.08 0.09 0.10 0.12 0.10 0.10 0.12 0.20 0.21 0.23 0.24 0.24 0.22 0.22 0.26 0.28 0.26 0.28 0.32 0.32 0.29 0.27 0.25
0.09 0.10 0.11 0.12 0.12 0.12 0.11 0.09 0.07 0.07 0.06 0.06 0.06 0.07 0.07 0.07 0.08 0.08 0.07 0.07 0.08 0.11 0.10 0.11 0.12 0.12 0.15 0.19 0.27 0.29 0.29 0.29 0.28 0.26 0.26 0.28 0.30 0.30 0.29 0.30 0.32 0.32 0.30 0.27
0.11 0.11 0.12 0.12 0.11 0.09 0.07 0.06 0.06 0.05 0.05 0.05 0.05 0.06 0.06 0.07 0.07 0.08 0.08 0.09 0.09 0.10 0.10 0.12 0.14 0.22 0.28 0.32 0.33 0.30 0.30 0.30 0.30 0.31 0.32 0.33 0.34 0.33 0.30 0.31 0.33 0.34 0.32 0.29
0.12 0.13 0.13 0.13 0.10 0.09 0.07 0.07 0.07 0.06 0.06 0.06 0.06 0.06 0.07 0.08 0.09 0.10 0.11 0.12 0.13 0.15 0.14 0.13 0.21 0.36 0.37 0.36 0.30 0.29 0.28 0.27 0.28 0.30 0.33 0.36 0.39 0.40 0.36 0.36 0.38 0.36 0.33 0.32
0.13 0.14 0.14 0.14 0.11 0.10 0.08 0.08 0.08 0.08 0.08 0.08 0.09 0.09 0.11 0.12 0.13 0.15 0.17 0.16 0.16 0.18 0.16 0.16 0.26 0.34 0.33 0.28 0.25 0.24 0.23 0.25 0.28 0.31 0.35 0.37 0.40 0.44 0.45 0.43 0.40 0.40 0.39 0.37
0.17 0.17 0.16 0.14 0.11 0.10 0.11 0.11 0.10 0.10 0.10 0.11 0.11 0.11 0.12 0.14 0.15 0.16 0.18 0.18 0.19 0.19 0.16 0.18 0.24 0.26 0.25 0.21 0.21 0.22 0.24 0.29 0.35 0.37 0.37 0.38 0.39 0.42 0.45 0.46 0.45 0.41 0.39 0.38
0.21 0.20 0.17 0.14 0.13 0.13 0.14 0.14 0.14 0.14 0.12 0.12 0.13 0.13 0.14 0.15 0.18 0.19 0.18 0.18 0.19 0.19 0.18 0.19 0.21 0.22 0.20 0.20 0.23 0.26 0.30 0.34 0.42 0.47 0.45 0.43 0.41 0.42 0.44 0.46 0.48 0.47 0.44 0.42
0.26 0.24 0.20 0.18 0.17 0.16 0.17 0.17 0.18 0.18 0.16 0.16 0.16 0.15 0.15 0.15 0.17 0.18 0.20 0.20 0.20 0.21 0.20 0.19 0.19 0.21 0.23 0.25 0.27 0.30 0.34 0.37 0.40 0.40 0.39 0.41 0.41 0.43 0.45 0.48 0.49 0.49 0.48 0.44
0.26 0.23 0.20 0.18 0.17 0.16 0.17 0.17 0.19 0.21 0.20 0.19 0.19 0.18 0.16 0.16 0.17 0.18 0.18 0.20 0.21 0.22 0.22 0.22 0.23 0.24 0.26 0.28 0.30 0.34 0.36 0.38 0.42 0.45 0.45 0.45 0.45 0.47 0.48 0.51 0.52 0.51 0.50 0.47

GEFSNGP_prec_meanprecacc_180.txt.gz
Total_Precipitation_Accumulation
0.20 0.12 0.12 0.15 0.13 0.14 0.18 0.19 0.16 0.08 0.05 0.04 0.03 0.02 0.02 0.02 0.01 0.01 0.01 0.01 0.02 0.02 0.02 0.02 0.03 0.05 0.08 0.10 0.14 0.17 0.21 0.24 0.25 0.24 0.24 0.25 0.26 0.27 0.29 0.31 0.31 0.28 0.27 0.28
0.21 0.13 0.13 0.13 0.10 0.09 0.10 0.09 0.07 0.05 0.05 0.04 0.02 0.02 0.01 0.01 0.02 0.02 0.02 0.03 0.03 0.03 0.04 0.05 0.06 0.10 0.15 0.21 0.24 0.26 0.28 0.28 0.27 0.25 0.24 0.24 0.26 0.27 0.28 0.29 0.26 0.22 0.20 0.23
0.30 0.15 0.23 0.25 0.11 0.07 0.07 0.06 0.04 0.05 0.04 0.03 0.02 0.02 0.02 0.02 0.03 0.04 0.04 0.04 0.05 0.06 0.08 0.10 0.14 0.19 0.23 0.26 0.26 0.27 0.29 0.29 0.28 0.26 0.26 0.25 0.24 0.23 0.23 0.22 0.18 0.15 0.12 0.14
0.44 0.31 0.42 0.19 0.05 0.05 0.06 0.06 0.05 0.04 0.03 0.03 0.02 0.02 0.02 0.02 0.04 0.05 0.06 0.08 0.10 0.11 0.13 0.16 0.21 0.25 0.27 0.27 0.27 0.28 0.27 0.24 0.20 0.18 0.17 0.17 0.18 0.18 0.16 0.15 0.14 0.12 0.09 0.08
0.54 0.45 0.27 0.07 0.03 0.04 0.07 0.09 0.07 0.05 0.04 0.03 0.02 0.02 0.03 0.05 0.05 0.06 0.07 0.08 0.08 0.08 0.09 0.14 0.19 0.23 0.23 0.22 0.21 0.19 0.17 0.14 0.11 0.09 0.09 0.10 0.12 0.12 0.11 0.11 0.10 0.09 0.08 0.08
0.56 0.48 0.24 0.07 0.02 0.03 0.07 0.10 0.07 0.06 0.05 0.05 0.08 0.20 0.11 0.10 0.07 0.05 0.04 0.04 0.04 0.04 0.04 0.07 0.10 0.12 0.13 0.13 0.11 0.10 0.09 0.07 0.05 0.04 0.05 0.06 0.06 0.07 0.07 0.08 0.08 0.08 0.08 0.07
0.49 0.42 0.18 0.05 0.03 0.05 0.13 0.15 0.11 0.09 0.09 0.13 0.19 0.24 0.15 0.09 0.07 0.05 0.03 0.03 0.02 0.03 0.04 0.07 0.10 0.11 0.11 0.08 0.06 0.04 0.04 0.03 0.03 0.03 0.04 0.04 0.05 0.06 0.06 0.08 0.09 0.09 0.08 0.07
0.36 0.41 0.19 0.04 0.05 0.09 0.13 0.11 0.09 0.11 0.13 0.18 0.14 0.06 0.05 0.05 0.06 0.04 0.03 0.02 0.03 0.04 0.06 0.10 0.12 0.10 0.07 0.05 0.03 0.02 0.03 0.03 0.03 0.04 0.04 0.04 0.06 0.07 0.08 0.08 0.09 0.10 0.10 0.10
0.24 0.18 0.06 0.05 0.07 0.08 0.09 0.11 0.14 0.21 0.21 0.20 0.17 0.10 0.08 0.06 0.05 0.03 0.03 0.03 0.05 0.06 0.09 0.12 0.10 0.06 0.04 0.02 0.02 0.02 0.03 0.04 0.04 0.05 0.05 0.06 0.07 0.09 0.08 0.08 0.11 0.14 0.15 0.14
0.16 0.09 0.05 0.05 0.04 0.05 0.07 0.11 0.15 0.18 0.20 0.21 0.22 0.16 0.10 0.06 0.05 0.04 0.05 0.07 0.08 0.08 0.10 0.12 0.08 0.04 0.03 0.02 0.02 0.02 0.03 0.04 0.05 0.06 0.07 0.07 0.08 0.08 0.09 0.11 0.23 0.31 0.27 0.24
0.10 0.07 0.06 0.05 0.05 0.05 0.08 0.07 0.06 0.07 0.11 0.19 0.23 0.18 0.10 0.07 0.07 0.08 0.08 0.09 0.10 0.11 0.11 0.09 0.05 0.02 0.02 0.03 0.03 0.04 0.04 0.05 0.06 0.07 0.08 0.09 0.08 0.08 0.11 0.14 0.30 0.50 0.46 0.44
0.07 0.05 0.06 0.05 0.05 0.07 0.10 0.08 0.08 0.10 0.12 0.13 0.16 0.15 0.11 0.12 0.12 0.13 0.13 0.15 0.15 0.12 0.08 0.05 0.04 0.03 0.03 0.04 0.06 0.07 0.07 0.07 0.08 0.09 0.10 0.11 0.12 0.12 0.12 0.14 0.21 0.25 0.29 0.39
0.04 0.03 0.04 0.04 0.04 0.04 0.07 0.09 0.11 0.14 0.14 0.10 0.10 0.12 0.17 0.21 0.19 0.18 0.18 0.16 0.13 0.09 0.07 0.05 0.04 0.03 0.04 0.05 0.07 0.08 0.09 0.10 0.13 0.13 0.14 0.15 0.17 0.19 0.17 0.14 0.14 0.14 0.17 0.24
0.03 0.04 0.06 0.04 0.03 0.03 0.06 0.08 0.12 0.15 0.13 0.10 0.09 0.10 0.14 0.17 0.16 0.14 0.14 0.11 0.08 0.08 0.06 0.04 0.04 0.04 0.04 0.06 0.08 0.10 0.11 0.13 0.15 0.16 0.18 0.19 0.21 0.22 0.22 0.23 0.20 0.16 0.15 0.19
0.03 0.05 0.06 0.05 0.04 0.05 0.08 0.09 0.11 0.12 0.12 0.10 0.09 0.10 0.12 0.15 0.16 0.15 0.12 0.09 0.07 0.07 0.06 0.06 0.05 0.05 0.05 0.07 0.08 0.10 0.11 0.13 0.16 0.19 0.21 0.22 0.24 0.24 0.24 0.24 0.23 0.20 0.19 0.21
0.05 0.05 0.06 0.06 0.07 0.09 0.09 0.10 0.11 0.11 0.11 0.11 0.11 0.12 0.12 0.12 0.12 0.12 0.10 0.08 0.08 0.08 0.08 0.08 0.07 0.07 0.07 0.08 0.10 0.11 0.11 0.15 0.19 0.21 0.23 0.24 0.26 0.27 0.28 0.30 0.29 0.26 0.26 0.26
0.08 0.08 0.08 0.09 0.09 0.11 0.12 0.13 0.12 0.11 0.09 0.08 0.09 0.09 0.09 0.08 0.08 0.08 0.09 0.08 0.08 0.08 0.08 0.08 0.08 0.08 0.08 0.09 0.13 0.14 0.14 0.16 0.19 0.21 0.23 0.25 0.29 0.33 0.35 0.37 0.38 0.33 0.27 0.26
0.09 0.11 0.12 0.14 0.14 0.13 0.13 0.11 0.10 0.08 0.08 0.08 0.07 0.07 0.07 0.08 0.08 0.07 0.08 0.08 0.07 0.08 0.08 0.09 0.11 0.10 0.08 0.10 0.17 0.18 0.19 0.21 0.22 0.24 0.25 0.27 0.33 0.36 0.38 0.39 0.38 0.34 0.27 0.25
0.09 0.11 0.11 0.13 0.13 0.14 0.13 0.10 0.09 0.08 0.08 0.08 0.08 0.08 0.09 0.08 0.08 0.08 0.07 0.07 0.08 0.09 0.10 0.11 0.12 0.10 0.10 0.12 0.21 0.23 0.25 0.27 0.26 0.25 0.25 0.30 0.32 0.31 0.35 0.37 0.36 0.33 0.30 0.28
0.10 0.10 0.11 0.12 0.12 0.12 0.11 0.09 0.07 0.07 0.07 0.07 0.07 0.07 0.08 0.08 0.08 0.08 0.08 0.08 0.09 0.12 0.11 0.12 0.12 0.13 0.16 0.20 0.29 0.30 0.32 0.32 0.32 0.29 0.29 0.31 0.33 0.33 0.35 0.34 0.35 0.35 0.32 0.30
0.12 0.12 0.13 0.13 0.11 0.09 0.08 0.07 0.06 0.06 0.06 0.06 0.06 0.06 0.07 0.07 0.08 0.09 0.09 0.10 0.10 0.12 0.11 0.13 0.15 0.24 0.31 0.35 0.36 0.33 0.32 0.33 0.34 0.34 0.35 0.36 0.38 0.36 0.35 0.35 0.36 0.37 0.35 0.32
0.13 0.14 0.14 0.14 0.11 0.09 0.08 0.07 0.07 0.07 0.06 0.07 0.07 0.08 0.09 0.09 0.10 0.11 0.12 0.14 0.15 0.17 0.15 0.15 0.23 0.38 0.40 0.39 0.34 0.32 0.30 0.30 0.31 0.33 0.36 0.39 0.43 0.43 0.41 0.40 0.42 0.40 0.37 0.36
0.14 0.15 0.15 0.15 0.12 0.11 0.10 0.09 0.09 0.09 0.09 0.10 0.10 0.11 0.13 0.14 0.15 0.17 0.20 0.19 0.18 0.21 0.19 0.20 0.29 0.37 0.37 0.32 0.29 0.27 0.27 0.29 0.32 0.35 0.39 0.42 0.44 0.47 0.49 0.48 0.45 0.44 0.43 0.41
0.18 0.18 0.17 0.15 0.12 0.12 0.12 0.12 0.12 0.12 0.12 0.13 0.14 0.15 0.15 0.17 0.19 0.20 0.22 0.23 0.22 0.23 0.20 0.23 0.28 0.30 0.28 0.25 0.25 0.26 0.28 0.32 0.38 0.40 0.41 0.42 0.43 0.46 0.50 0.51 0.50 0.45 0.43 0.42
0.23 0.21 0.19 0.16 0.14 0.14 0.16 0.15 0.15 0.15 0.14 0.14 0.15 0.16 0.17 0.19 0.22 0.23 0.23 0.23 0.23 0.23 0.22 0.23 0.25 0.25 0.24 0.24 0.26 0.30 0.34 0.39 0.46 0.51 0.49 0.47 0.45 0.47 0.48 0.49 0.51 0.50 0.47 0.45
0.28 0.25 0.22 0.20 0.18 0.18 0.18 0.18 0.19 0.19 0.18 0.18 0.18 0.17 0.17 0.18 0.20 0.22 0.23 0.24 0.23 0.24 0.23 0.22 0.22 0.24 0.26 0.28 0.30 0.34 0.38 0.41 0.43 0.44 0.43 0.44 0.45 0.47 0.49 0.51 0.52 0.52 0.51 0.47
0.27 0.24 0.21 0.19 0.18 0.18 0.18 0.19 0.20 0.22 0.21 0.21 0.21 0.19 0.17 0.18 0.19 0.20 0.21 0.22 0.24 0.24 0.24 0.24 0.25 0.27 0.29 0.30 0.33 0.37 0.39 0.41 0.44 0.47 0.47 0.48 0.49 0.50 0.52 0.55 0.56 0.55 0.53 0.50

GEFSNGP_prec_meanprecacc_186.txt.gz
Total_Precipitation_Accumulation
0.21 0.12 0.13 0.16 0.15 0.15 0.20 0.22 0.19 0.09 0.05 0.04 0.03 0.03 0.03 0.03 0.03 0.02 0.02 0.03 0.04 0.04 0.03 0.03 0.04 0.06 0.10 0.13 0.16 0.20 0.27 0.27 0.27 0.25 0.26 0.26 0.28 0.29 0.31 0.34 0.36 0.35 0.32 0.32
0.22 0.13 0.14 0.14 0.11 0.09 0.10 0.09 0.08 0.06 0.05 0.04 0.03 0.02 0.02 0.02 0.03 0.03 0.04 0.05 0.05 0.06 0.06 0.06 0.08 0.12 0.18 0.24 0.26 0.29 0.32 0.31 0.28 0.26 0.25 0.26 0.27 0.29 0.30 0.31 0.30 0.28 0.27 0.28
0.32 0.16 0.24 0.26 0.11 0.07 0.07 0.06 0.05 0.06 0.05 0.04 0.03 0.02 0.02 0.02 0.04 0.05 0.05 0.06 0.08 0.09 0.11 0.12 0.15 0.21 0.25 0.28 0.28 0.29 0.31 0.31 0.29 0.27 0.27 0.26 0.25 0.24 0.24 0.23 0.22 0.20 0.20 0.21
0.47 0.34 0.44 0.20 0.05 0.05 0.06 0.06 0.06 0.05 0.04 0.03 0.03 0.02 0.02 0.03 0.05 0.07 0.09 0.11 0.12 0.14 0.15 0.18 0.22 0.26 0.29 0.29 0.30 0.30 0.28 0.26 0.22 0.19 0.18 0.18 0.19 0.19 0.17 0.16 0.17 0.16 0.15 0.15
0.60 0.48 0.28 0.08 0.03 0.04 0.07 0.09 0.07 0.06 0.04 0.03 0.03 0.03 0.03 0.06 0.06 0.08 0.09 0.10 0.10 0.10 0.12 0.16 0.20 0.24 0.24 0.24 0.23 0.22 0.18 0.15 0.12 0.10 0.10 0.11 0.13 0.13 0.12 0.12 0.12 0.12 0.13 0.13
0.63 0.53 0.26 0.07 0.03 0.03 0.08 0.11 0.08 0.07 0.06 0.05 0.09 0.21 0.12 0.11 0.07 0.05 0.05 0.04 0.05 0.05 0.06 0.09 0.12 0.13 0.14 0.15 0.13 0.13 0.11 0.08 0.06 0.05 0.05 0.06 0.07 0.08 0.08 0.10 0.11 0.11 0.12 0.13
0.54 0.47 0.20 0.05 0.03 0.05 0.14 0.16 0.11 0.10 0.09 0.13 0.20 0.26 0.15 0.10 0.07 0.05 0.04 0.03 0.03 0.04 0.06 0.08 0.11 0.11 0.11 0.09 0.08 0.07 0.07 0.06 0.05 0.05 0.04 0.05 0.06 0.07 0.08 0.10 0.12 0.13 0.13 0.13
0.39 0.46 0.21 0.04 0.06 0.10 0.14 0.12 0.11 0.12 0.14 0.19 0.14 0.07 0.05 0.06 0.06 0.04 0.03 0.03 0.03 0.05 0.07 0.12 0.13 0.11 0.07 0.05 0.03 0.04 0.06 0.06 0.06 0.05 0.05 0.05 0.06 0.08 0.10 0.11 0.12 0.13 0.15 0.15
0.26 0.20 0.07 0.05 0.08 0.09 0.10 0.12 0.15 0.23 0.22 0.21 0.18 0.10 0.08 0.07 0.05 0.03 0.03 0.04 0.05 0.07 0.11 0.14 0.11 0.07 0.04 0.03 0.02 0.03 0.05 0.06 0.06 0.06 0.06 0.07 0.09 0.11 0.11 0.11 0.14 0.17 0.18 0.18
0.18 0.10 0.06 0.05 0.05 0.05 0.07 0.12 0.16 0.19 0.20 0.22 0.23 0.17 0.11 0.07 0.05 0.04 0.05 0.07 0.08 0.09 0.11 0.14 0.10 0.05 0.04 0.03 0.02 0.03 0.05 0.06 0.07 0.07 0.08 0.08 0.09 0.10 0.11 0.13 0.25 0.34 0.31 0.28
0.11 0.07 0.06 0.06 0.05 0.06 0.08 0.08 0.07 0.08 0.12 0.19 0.24 0.18 0.11 0.08 0.07 0.08 0.09 0.09 0.10 0.12 0.12 0.11 0.07 0.04 0.03 0.04 0.04 0.06 0.07 0.07 0.09 0.09 0.10 0.11 0.11 0.12 0.14 0.16 0.33 0.54 0.51 0.49
0.08 0.06 0.06 0.06 0.05 0.07 0.11 0.09 0.09 0.11 0.12 0.13 0.17 0.16 0.12 0.12 0.13 0.13 0.14 0.15 0.16 0.13 0.09 0.07 0.07 0.05 0.05 0.05 0.07 0.08 0.09 0.09 0.11 0.12 0.13 0.15 0.16 0.17 0.17 0.18 0.25 0.29 0.33 0.43
0.04 0.04 0.04 0.05 0.04 0.05 0.08 0.10 0.12 0.15 0.14 0.11 0.10 0.13 0.18 0.22 0.20 0.19 0.19 0.17 0.14 0.11 0.09 0.09 0.08 0.08 0.07 0.08 0.10 0.11 0.11 0.13 0.15 0.16 0.17 0.20 0.22 0.24 0.21 0.17 0.17 0.17 0.19 0.27
0.03 0.05 0.06 0.05 0.04 0.04 0.07 0.09 0.12 0.15 0.13 0.10 0.09 0.11 0.15 0.19 0.18 0.16 0.15 0.12 0.10 0.09 0.09 0.09 0.09 0.08 0.08 0.10 0.12 0.13 0.13 0.15 0.18 0.19 0.22 0.23 0.26 0.27 0.26 0.25 0.23 0.19 0.18 0.22
0.04 0.05 0.07 0.05 0.04 0.06 0.08 0.10 0.11 0.12 0.12 0.11 0.10 0.11 0.13 0.16 0.18 0.18 0.15 0.11 0.09 0.09 0.10 0.10 0.09 0.09 0.09 0.10 0.11 0.13 0.14 0.15 0.19 0.23 0.25 0.27 0.29 0.29 0.28 0.27 0.26 0.24 0.23 0.25
0.06 0.06 0.06 0.06 0.07 0.09 0.10 0.10 0.12 0.12 0.12 0.12 0.12 0.12 0.13 0.13 0.13 0.13 0.13 0.12 0.10 0.11 0.11 0.11 0.11 0.10 0.10 0.11 0.13 0.13 0.13 0.17 0.22 0.24 0.27 0.28 0.31 0.32 0.32 0.33 0.32 0.30 0.30 0.31
0.08 0.08 0.09 0.09 0.10 0.11 0.13 0.13 0.13 0.12 0.10 0.09 0.09 0.10 0.09 0.09 0.09 0.09 0.10 0.11 0.11 0.10 0.10 0.11 0.11 0.11 0.10 0.11 0.16 0.17 0.17 0.19 0.23 0.24 0.26 0.29 0.34 0.38 0.38 0.41 0.42 0.37 0.31 0.31
0.09 0.11 0.13 0.14 0.14 0.14 0.13 0.11 0.10 0.09 0.08 0.08 0.08 0.08 0.08 0.09 0.09 0.09 0.09 0.09 0.09 0.09 0.10 0.11 0.12 0.11 0.10 0.12 0.18 0.19 0.22 0.24 0.26 0.27 0.28 0.31 0.37 0.40 0.42 0.44 0.42 0.38 0.33 0.31
0.10 0.11 0.12 0.13 0.14 0.14 0.13 0.11 0.09 0.08 0.08 0.08 0.09 0.09 0.10 0.10 0.10 0.09 0.08 0.08 0.09 0.10 0.11 0.11 0.13 0.11 0.11 0.13 0.22 0.24 0.27 0.29 0.29 0.28 0.29 0.35 0.37 0.35 0.39 0.42 0.41 0.38 0.35 0.34
0.10 0.11 0.12 0.12 0.13 0.13 0.12 0.09 0.08 0.07 0.07 0.07 0.08 0.08 0.09 0.09 0.09 0.09 0.08 0.08 0.10 0.13 0.12 0.13 0.13 0.14 0.17 0.21 0.30 0.32 0.34 0.34 0.34 0.32 0.32 0.35 0.37 0.37 0.38 0.39 0.40 0.40 0.38 0.35
0.12 0.12 0.13 0.13 0.12 0.10 0.08 0.07 0.06 0.06 0.06 0.06 0.07 0.08 0.08 0.08 0.08 0.09 0.09 0.10 0.11 0.13 0.13 0.14 0.16 0.25 0.31 0.36 0.37 0.34 0.34 0.35 0.36 0.37 0.37 0.39 0.40 0.38 0.38 0.39 0.40 0.41 0.40 0.37
0.13 0.14 0.15 0.14 0.12 0.10 0.08 0.08 0.08 0.07 0.07 0.07 0.07 0.09 0.10 0.10 0.10 0.11 0.13 0.14 0.16 0.19 0.17 0.17 0.24 0.40 0.41 0.41 0.35 0.34 0.33 0.32 0.33 0.36 0.39 0.42 0.45 0.46 0.44 0.43 0.46 0.44 0.41 0.41
0.14 0.15 0.16 0.15 0.13 0.11 0.10 0.10 0.10 0.10 0.10 0.10 0.11 0.12 0.14 0.15 0.16 0.18 0.21 0.19 0.20 0.23 0.21 0.22 0.32 0.39 0.39 0.34 0.31 0.30 0.30 0.32 0.34 0.37 0.41 0.44 0.47 0.51 0.53 0.52 0.49 0.48 0.47 0.46
0.19 0.18 0.18 0.16 0.13 0.12 0.13 0.13 0.12 0.12 0.13 0.13 0.14 0.15 0.16 0.18 0.19 0.21 0.23 0.24 0.24 0.25 0.23 0.25 0.31 0.32 0.31 0.28 0.28 0.29 0.32 0.36 0.41 0.43 0.44 0.45 0.47 0.51 0.55 0.56 0.55 0.50 0.48 0.48
0.24 0.22 0.19 0.16 0.15 0.15 0.16 0.16 0.16 0.16 0.14 0.15 0.16 0.17 0.18 0.20 0.23 0.24 0.24 0.24 0.25 0.25 0.24 0.25 0.28 0.28 0.27 0.27 0.29 0.33 0.37 0.42 0.50 0.54 0.52 0.50 0.49 0.51 0.53 0.56 0.58 0.57 0.54 0.51
0.28 0.26 0.23 0.21 0.19 0.19 0.19 0.19 0.20 0.20 0.18 0.18 0.18 0.18 0.18 0.19 0.21 0.23 0.25 0.26 0.25 0.26 0.25 0.24 0.25 0.27 0.29 0.30 0.33 0.37 0.41 0.44 0.46 0.47 0.46 0.48 0.49 0.51 0.54 0.57 0.58 0.59 0.57 0.54
0.28 0.25 0.22 0.20 0.19 0.19 0.19 0.20 0.21 0.22 0.22 0.22 0.22 0.20 0.18 0.18 0.20 0.21 0.22 0.24 0.25 0.26 0.26 0.27 0.28 0.30 0.31 0.33 0.35 0.39 0.41 0.43 0.47 0.50 0.50 0.51 0.52 0.54 0.56 0.59 0.61 0.60 0.59 0.57

GEFSNGP_prec_meanprecacc_192.txt.gz
Total_Precipitation_Accumulation
0.21 0.13 0.13 0.17 0.15 0.16 0.21 0.23 0.20 0.10 0.06 0.04 0.03 0.04 0.04 0.04 0.03 0.03 0.03 0.03 0.05 0.05 0.04 0.05 0.06 0.08 0.13 0.16 0.20 0.24 0.31 0.32 0.31 0.32 0.35 0.34 0.34 0.34 0.36 0.40 0.43 0.43 0.39 0.39
0.23 0.14 0.14 0.15 0.11 0.10 0.10 0.10 0.08 0.06 0.05 0.04 0.03 0.02 0.02 0.03 0.04 0.04 0.04 0.05 0.06 0.06 0.07 0.07 0.09 0.14 0.21 0.27 0.30 0.33 0.38 0.39 0.35 0.31 0.32 0.36 0.36 0.34 0.35 0.36 0.35 0.35 0.34 0.36
0.34 0.16 0.25 0.27 0.11 0.07 0.08 0.06 0.06 0.06 0.05 0.04 0.03 0.02 0.02 0.02 0.04 0.05 0.05 0.06 0.08 0.09 0.11 0.13 0.17 0.22 0.27 0.31 0.31 0.33 0.37 0.40 0.38 0.33 0.32 0.34 0.35 0.31 0.30 0.28 0.27 0.26 0.26 0.28
0.51 0.35 0.46 0.20 0.05 0.05 0.06 0.06 0.06 0.05 0.04 0.04 0.03 0.02 0.02 0.03 0.05 0.07 0.09 0.11 0.13 0.15 0.16 0.18 0.23 0.27 0.31 0.31 0.32 0.32 0.32 0.32 0.32 0.25 0.22 0.24 0.27 0.25 0.23 0.22 0.23 0.23 0.22 0.22
0.65 0.51 0.29 0.08 0.03 0.04 0.07 0.09 0.07 0.06 0.04 0.03 0.03 0.03 0.04 0.06 0.07 0.08 0.09 0.10 0.10 0.11 0.13 0.17 0.21 0.24 0.25 0.25 0.24 0.23 0.22 0.20 0.21 0.17 0.13 0.15 0.18 0.18 0.17 0.17 0.17 0.18 0.21 0.21
0.69 0.57 0.28 0.08 0.03 0.03 0.08 0.11 0.08 0.07 0.06 0.06 0.09 0.21 0.12 0.11 0.08 0.06 0.05 0.05 0.05 0.06 0.07 0.10 0.12 0.13 0.14 0.15 0.14 0.14 0.13 0.12 0.16 0.13 0.09 0.09 0.11 0.11 0.12 0.13 0.15 0.16 0.18 0.22
0.58 0.51 0.21 0.06 0.03 0.05 0.15 0.17 0.12 0.11 0.10 0.14 0.20 0.26 0.16 0.10 0.08 0.06 0.05 0.04 0.03 0.04 0.07 0.09 0.11 0.12 0.12 0.10 0.08 0.07 0.08 0.09 0.14 0.14 0.08 0.06 0.08 0.09 0.11 0.13 0.16 0.17 0.17 0.19
0.41 0.51 0.22 0.05 0.06 0.11 0.16 0.13 0.12 0.13 0.15 0.20 0.15 0.08 0.06 0.07 0.07 0.05 0.03 0.03 0.04 0.05 0.08 0.12 0.14 0.11 0.08 0.06 0.04 0.04 0.07 0.09 0.12 0.15 0.10 0.07 0.08 0.10 0.11 0.13 0.17 0.18 0.19 0.20
0.27 0.21 0.07 0.06 0.08 0.09 0.11 0.13 0.16 0.25 0.25 0.23 0.19 0.12 0.10 0.08 0.06 0.04 0.03 0.04 0.05 0.07 0.12 0.15 0.12 0.08 0.05 0.04 0.03 0.03 0.06 0.09 0.10 0.13 0.12 0.11 0.11 0.12 0.12 0.13 0.18 0.23 0.23 0.24
0.19 0.10 0.06 0.05 0.05 0.05 0.08 0.13 0.17 0.20 0.22 0.24 0.25 0.18 0.13 0.10 0.07 0.05 0.05 0.07 0.08 0.09 0.13 0.15 0.11 0.06 0.05 0.04 0.04 0.04 0.06 0.09 0.11 0.12 0.14 0.12 0.11 0.12 0.13 0.15 0.28 0.38 0.36 0.32
0.11 0.07 0.07 0.06 0.05 0.06 0.09 0.08 0.07 0.09 0.13 0.21 0.27 0.20 0.12 0.09 0.09 0.09 0.09 0.09 0.11 0.12 0.13 0.12 0.09 0.06 0.05 0.06 0.07 0.07 0.08 0.10 0.12 0.13 0.13 0.15 0.14 0.14 0.17 0.18 0.36 0.58 0.55 0.55
0.08 0.06 0.07 0.06 0.05 0.07 0.11 0.09 0.09 0.12 0.14 0.15 0.18 0.17 0.13 0.13 0.14 0.14 0.14 0.16 0.16 0.14 0.10 0.09 0.08 0.07 0.06 0.07 0.10 0.11 0.11 0.12 0.14 0.16 0.16 0.18 0.19 0.20 0.20 0.21 0.28 0.32 0.37 0.48
0.04 0.04 0.05 0.05 0.05 0.06 0.09 0.11 0.14 0.16 0.15 0.11 0.11 0.13 0.18 0.22 0.21 0.19 0.20 0.18 0.15 0.12 0.10 0.10 0.10 0.09 0.09 0.11 0.13 0.14 0.15 0.17 0.19 0.20 0.21 0.23 0.26 0.27 0.25 0.22 0.21 0.21 0.23 0.31
0.04 0.05 0.07 0.05 0.05 0.05 0.08 0.10 0.13 0.16 0.14 0.10 0.10 0.11 0.16 0.19 0.19 0.17 0.17 0.14 0.11 0.10 0.10 0.11 0.11 0.10 0.10 0.13 0.16 0.19 0.19 0.20 0.22 0.23 0.25 0.26 0.28 0.29 0.28 0.28 0.26 0.22 0.21 0.25
0.04 0.05 0.08 0.06 0.05 0.07 0.09 0.10 0.12 0.13 0.12 0.11 0.10 0.11 0.14 0.17 0.19 0.19 0.16 0.12 0.10 0.10 0.11 0.11 0.11 0.11 0.11 0.13 0.16 0.18 0.19 0.20 0.22 0.26 0.28 0.29 0.32 0.32 0.30 0.29 0.28 0.26 0.26 0.29
0.06 0.07 0.07 0.06 0.07 0.09 0.10 0.10 0.12 0.12 0.12 0.12 0.13 0.13 0.13 0.14 0.14 0.14 0.14 0.12 0.11 0.12 0.12 0.13 0.13 0.12 0.13 0.14 0.16 0.17 0.17 0.21 0.25 0.27 0.30 0.31 0.33 0.35 0.35 0.35 0.34 0.32 0.33 0.35
0.08 0.09 0.09 0.10 0.10 0.11 0.13 0.13 0.13 0.12 0.10 0.09 0.10 0.10 0.10 0.09 0.09 0.09 0.11 0.11 0.12 0.12 0.12 0.13 0.13 0.13 0.13 0.14 0.19 0.20 0.21 0.23 0.27 0.28 0.29 0.32 0.36 0.40 0.41 0.43 0.44 0.40 0.34 0.35
0.09 0.12 0.13 0.15 0.14 0.14 0.13 0.12 0.10 0.09 0.09 0.08 0.08 0.08 0.08 0.09 0.09 0.09 0.10 0.10 0.10 0.10 0.11 0.13 0.14 0.13 0.12 0.15 0.22 0.23 0.26 0.28 0.29 0.30 0.31 0.34 0.40 0.42 0.44 0.46 0.44 0.41 0.35 0.34
0.10 0.11 0.12 0.13 0.14 0.14 0.13 0.11 0.09 0.08 0.08 0.08 0.09 0.09 0.10 0.10 0.10 0.10 0.10 0.09 0.10 0.12 0.12 0.12 0.14 0.12 0.12 0.15 0.25 0.27 0.31 0.33 0.32 0.30 0.31 0.37 0.40 0.38 0.41 0.44 0.43 0.40 0.38 0.37
0.11 0.11 0.12 0.12 0.13 0.13 0.12 0.09 0.08 0.07 0.07 0.08 0.08 0.09 0.09 0.10 0.10 0.11 0.10 0.10 0.12 0.15 0.13 0.13 0.14 0.15 0.18 0.22 0.32 0.35 0.37 0.37 0.37 0.35 0.34 0.37 0.39 0.39 0.41 0.41 0.43 0.42 0.40 0.39
0.13 0.12 0.13 0.14 0.12 0.10 0.08 0.07 0.06 0.06 0.06 0.06 0.07 0.08 0.09 0.09 0.10 0.10 0.11 0.12 0.12 0.14 0.14 0.14 0.16 0.25 0.32 0.37 0.39 0.37 0.37 0.38 0.39 0.40 0.40 0.41 0.43 0.41 0.40 0.42 0.43 0.43 0.43 0.41
0.14 0.15 0.15 0.14 0.12 0.10 0.08 0.08 0.08 0.07 0.07 0.07 0.08 0.09 0.10 0.11 0.11 0.12 0.14 0.15 0.16 0.19 0.18 0.17 0.25 0.41 0.43 0.43 0.38 0.37 0.36 0.35 0.36 0.39 0.42 0.46 0.49 0.49 0.47 0.47 0.49 0.47 0.44 0.44
0.15 0.16 0.16 0.16 0.13 0.12 0.10 0.10 0.10 0.10 0.10 0.10 0.11 0.13 0.15 0.16 0.17 0.19 0.22 0.20 0.20 0.24 0.22 0.23 0.33 0.41 0.40 0.36 0.34 0.34 0.34 0.35 0.38 0.41 0.44 0.49 0.52 0.55 0.57 0.55 0.52 0.50 0.50 0.49
0.19 0.19 0.18 0.16 0.13 0.12 0.13 0.13 0.13 0.13 0.13 0.14 0.15 0.16 0.17 0.19 0.20 0.21 0.24 0.25 0.25 0.26 0.24 0.26 0.32 0.34 0.33 0.30 0.31 0.33 0.36 0.40 0.45 0.47 0.47 0.49 0.51 0.54 0.58 0.59 0.58 0.53 0.51 0.51
0.24 0.23 0.20 0.17 0.15 0.16 0.17 0.17 0.16 0.16 0.15 0.15 0.17 0.17 0.18 0.21 0.24 0.25 0.24 0.25 0.27 0.27 0.26 0.27 0.29 0.30 0.29 0.30 0.32 0.36 0.41 0.46 0.54 0.58 0.56 0.54 0.53 0.54 0.56 0.59 0.61 0.60 0.57 0.54
0.29 0.27 0.24 0.22 0.20 0.20 0.20 0.19 0.21 0.21 0.19 0.19 0.19 0.19 0.19 0.20 0.22 0.24 0.26 0.27 0.27 0.27 0.26 0.26 0.27 0.30 0.31 0.33 0.36 0.40 0.44 0.48 0.51 0.51 0.50 0.52 0.52 0.54 0.57 0.60 0.62 0.63 0.61 0.57
0.29 0.26 0.23 0.21 0.20 0.20 0.20 0.20 0.22 0.23 0.23 0.22 0.22 0.20 0.19 0.19 0.20 0.22 0.23 0.25 0.27 0.28 0.28 0.29 0.30 0.32 0.34 0.36 0.38 0.42 0.45 0.47 0.51 0.54 0.54 0.55 0.55 0.57 0.59 0.63 0.65 0.64 0.63 0.61